Time,TemperatureF,DewpointF,PressureIn,WindDirection,WindDirectionDegrees,WindSpeedMPH,WindSpeedGustMPH,Humidity,HourlyPrecipIn,Conditions,Clouds,dailyrainin,SoftwareType,DateUTC
2013-05-27 00:01:00,66.9,33.6,29.57,SW,229,5.0,10.0,29,0.00,,,0.00,meteohub,2013-05-27 06:01:00,
2013-05-27 00:03:00,66.9,33.6,29.57,SW,216,2.0,10.0,29,0.00,,,0.00,meteohub,2013-05-27 06:03:00,
2013-05-27 00:04:00,66.9,33.6,29.57,WSW,242,7.0,10.0,29,0.00,,,0.00,meteohub,2013-05-27 06:04:00,
2013-05-27 00:06:00,66.7,34.3,29.57,SW,224,6.0,10.0,30,0.00,,,0.00,meteohub,2013-05-27 06:06:00,
2013-05-27 00:08:00,66.6,34.2,29.57,SW,224,3.0,9.0,30,0.00,,,0.00,meteohub,2013-05-27 06:08:00,
2013-05-27 00:10:00,66.4,34.0,29.56,WSW,238,4.0,9.0,30,0.00,,,0.00,meteohub,2013-05-27 06:10:00,
2013-05-27 00:11:00,66.4,34.0,29.57,WNW,286,4.0,9.0,30,0.00,,,0.00,meteohub,2013-05-27 06:11:00,
2013-05-27 00:12:00,66.4,34.0,29.56,SSW,209,5.0,10.0,30,0.00,,,0.00,meteohub,2013-05-27 06:12:00,
2013-05-27 00:15:00,66.0,33.6,29.57,SW,233,5.0,10.0,30,0.00,,,0.00,meteohub,2013-05-27 06:15:00,
2013-05-27 00:16:00,66.0,33.6,29.57,SW,235,4.0,10.0,30,0.00,,,0.00,meteohub,2013-05-27 06:16:00,
2013-05-27 00:17:00,66.0,33.6,29.57,WSW,239,3.0,10.0,30,0.00,,,0.00,meteohub,2013-05-27 06:17:00,
2013-05-27 00:22:00,66.0,33.6,29.57,WSW,258,4.0,13.0,30,0.00,,,0.00,meteohub,2013-05-27 06:22:00,
2013-05-27 00:23:00,65.8,33.6,29.56,SW,236,5.0,13.0,30,0.00,,,0.00,meteohub,2013-05-27 06:23:00,
2013-05-27 00:25:00,65.8,34.3,29.57,SW,233,5.0,13.0,31,0.00,,,0.00,meteohub,2013-05-27 06:25:00,
2013-05-27 00:29:00,65.8,34.3,29.57,WSW,242,4.0,9.0,31,0.00,,,0.00,meteohub,2013-05-27 06:29:00,
2013-05-27 00:30:00,65.8,34.3,29.57,WSW,244,5.0,9.0,31,0.00,,,0.00,meteohub,2013-05-27 06:30:00,
2013-05-27 00:31:00,65.8,34.3,29.57,SW,222,4.0,9.0,31,0.00,,,0.00,meteohub,2013-05-27 06:31:00,
2013-05-27 00:32:00,65.7,34.2,29.56,SW,232,6.0,9.0,31,0.00,,,0.00,meteohub,2013-05-27 06:32:00,
2013-05-27 00:34:00,65.7,34.2,29.57,SW,227,9.0,9.0,31,0.00,,,0.00,meteohub,2013-05-27 06:34:00,
2013-05-27 00:35:00,65.7,34.2,29.56,WSW,254,6.0,9.0,31,0.00,,,0.00,meteohub,2013-05-27 06:35:00,
2013-05-27 00:37:00,65.7,34.2,29.56,West,277,5.0,10.0,31,0.00,,,0.00,meteohub,2013-05-27 06:37:00,
2013-05-27 00:39:00,65.7,34.2,29.56,WSW,244,6.0,10.0,31,0.00,,,0.00,meteohub,2013-05-27 06:39:00,
2013-05-27 00:40:00,65.7,34.2,29.56,WSW,246,4.0,10.0,31,0.00,,,0.00,meteohub,2013-05-27 06:40:00,
2013-05-27 00:41:00,65.7,34.2,29.56,SW,231,4.0,10.0,31,0.00,,,0.00,meteohub,2013-05-27 06:41:00,
2013-05-27 00:43:00,65.7,34.2,29.56,WSW,242,4.0,11.0,31,0.00,,,0.00,meteohub,2013-05-27 06:43:00,
2013-05-27 00:44:00,65.7,34.2,29.56,WSW,252,3.0,11.0,31,0.00,,,0.00,meteohub,2013-05-27 06:44:00,
2013-05-27 00:45:00,65.7,34.2,29.56,SW,236,9.0,11.0,31,0.00,,,0.00,meteohub,2013-05-27 06:45:00,
2013-05-27 00:46:00,65.7,34.2,29.56,West,267,6.0,11.0,31,0.00,,,0.00,meteohub,2013-05-27 06:46:00,
2013-05-27 00:49:00,65.7,34.2,29.56,SW,218,8.0,11.0,31,0.00,,,0.00,meteohub,2013-05-27 06:49:00,
2013-05-27 00:50:00,65.7,34.2,29.56,WSW,245,10.0,11.0,31,0.00,,,0.00,meteohub,2013-05-27 06:50:00,
2013-05-27 00:51:00,65.7,34.2,29.56,West,262,2.0,11.0,31,0.00,,,0.00,meteohub,2013-05-27 06:51:00,
2013-05-27 00:52:00,65.8,34.3,29.56,SW,236,5.0,11.0,31,0.00,,,0.00,meteohub,2013-05-27 06:52:00,
2013-05-27 00:54:00,65.8,34.3,29.56,West,262,4.0,11.0,31,0.00,,,0.00,meteohub,2013-05-27 06:54:00,
2013-05-27 00:56:00,65.8,34.3,29.56,NW,304,5.0,11.0,31,0.00,,,0.00,meteohub,2013-05-27 06:56:00,
2013-05-27 00:57:00,65.8,34.3,29.56,WSW,240,5.0,11.0,31,0.00,,,0.00,meteohub,2013-05-27 06:57:00,
2013-05-27 00:59:00,65.8,33.6,29.56,WSW,248,5.0,11.0,30,0.00,,,0.00,meteohub,2013-05-27 06:59:00,
2013-05-27 01:00:00,65.8,34.3,29.56,WSW,238,7.0,11.0,31,0.00,,,0.00,meteohub,2013-05-27 07:00:00,
2013-05-27 01:02:00,65.8,34.3,29.56,WSW,250,4.0,11.0,31,0.00,,,0.00,meteohub,2013-05-27 07:02:00,
2013-05-27 01:03:00,65.8,34.3,29.55,WNW,284,7.0,11.0,31,0.00,,,0.00,meteohub,2013-05-27 07:03:00,
2013-05-27 01:04:00,65.8,33.6,29.55,WSW,254,5.0,11.0,30,0.00,,,0.00,meteohub,2013-05-27 07:04:00,
2013-05-27 01:05:00,66.0,34.5,29.55,WSW,248,4.0,11.0,31,0.00,,,0.00,meteohub,2013-05-27 07:05:00,
2013-05-27 01:06:00,66.0,33.6,29.55,WSW,240,7.0,11.0,30,0.00,,,0.00,meteohub,2013-05-27 07:06:00,
2013-05-27 01:07:00,66.0,33.6,29.55,WSW,252,7.0,11.0,30,0.00,,,0.00,meteohub,2013-05-27 07:07:00,
2013-05-27 01:10:00,66.0,33.6,29.55,SW,234,3.0,11.0,30,0.00,,,0.00,meteohub,2013-05-27 07:10:00,
2013-05-27 01:11:00,66.0,33.6,29.55,WSW,242,6.0,11.0,30,0.00,,,0.00,meteohub,2013-05-27 07:11:00,
2013-05-27 01:12:00,66.0,33.6,29.55,WSW,240,0.0,11.0,30,0.00,,,0.00,meteohub,2013-05-27 07:12:00,
2013-05-27 01:13:00,66.0,33.6,29.55,West,270,4.0,11.0,30,0.00,,,0.00,meteohub,2013-05-27 07:13:00,
2013-05-27 01:17:00,65.8,33.6,29.55,West,271,5.0,11.0,30,0.00,,,0.00,meteohub,2013-05-27 07:17:00,
2013-05-27 01:18:00,65.8,34.3,29.55,SW,232,5.0,11.0,31,0.00,,,0.00,meteohub,2013-05-27 07:18:00,
2013-05-27 01:19:00,65.7,34.2,29.55,West,265,6.0,11.0,31,0.00,,,0.00,meteohub,2013-05-27 07:19:00,
2013-05-27 01:22:00,65.7,34.2,29.55,SW,236,6.0,12.0,31,0.00,,,0.00,meteohub,2013-05-27 07:22:00,
2013-05-27 01:23:00,65.7,33.4,29.55,WSW,239,8.0,12.0,30,0.00,,,0.00,meteohub,2013-05-27 07:23:00,
2013-05-27 01:24:00,65.5,34.0,29.55,WSW,246,9.0,12.0,31,0.00,,,0.00,meteohub,2013-05-27 07:24:00,
2013-05-27 01:27:00,65.5,34.0,29.55,WSW,245,6.0,12.0,31,0.00,,,0.00,meteohub,2013-05-27 07:27:00,
2013-05-27 01:28:00,65.5,33.3,29.55,West,269,4.0,12.0,30,0.00,,,0.00,meteohub,2013-05-27 07:28:00,
2013-05-27 01:29:00,65.5,34.0,29.55,West,273,5.0,12.0,31,0.00,,,0.00,meteohub,2013-05-27 07:29:00,
2013-05-27 01:30:00,65.5,33.3,29.55,West,269,4.0,12.0,30,0.00,,,0.00,meteohub,2013-05-27 07:30:00,
2013-05-27 01:33:00,65.3,33.1,29.55,WSW,258,6.0,12.0,30,0.00,,,0.00,meteohub,2013-05-27 07:33:00,
2013-05-27 01:34:00,65.3,33.1,29.55,West,281,5.0,12.0,30,0.00,,,0.00,meteohub,2013-05-27 07:34:00,
2013-05-27 01:36:00,65.3,33.1,29.55,West,271,3.0,12.0,30,0.00,,,0.00,meteohub,2013-05-27 07:36:00,
2013-05-27 01:37:00,65.3,33.1,29.55,WSW,247,4.0,11.0,30,0.00,,,0.00,meteohub,2013-05-27 07:37:00,
2013-05-27 01:39:00,65.1,32.9,29.55,NW,306,9.0,11.0,30,0.00,,,0.00,meteohub,2013-05-27 07:39:00,
2013-05-27 01:40:00,65.1,32.9,29.54,West,280,6.0,11.0,30,0.00,,,0.00,meteohub,2013-05-27 07:40:00,
2013-05-27 01:41:00,65.1,32.9,29.54,WSW,254,5.0,11.0,30,0.00,,,0.00,meteohub,2013-05-27 07:41:00,
2013-05-27 01:42:00,65.1,32.9,29.55,West,272,4.0,11.0,30,0.00,,,0.00,meteohub,2013-05-27 07:42:00,
2013-05-27 01:45:00,65.1,32.9,29.54,West,271,3.0,11.0,30,0.00,,,0.00,meteohub,2013-05-27 07:45:00,
2013-05-27 01:47:00,65.1,32.9,29.54,West,277,4.0,10.0,30,0.00,,,0.00,meteohub,2013-05-27 07:47:00,
2013-05-27 01:48:00,65.1,32.9,29.54,West,277,0.0,10.0,30,0.00,,,0.00,meteohub,2013-05-27 07:48:00,
2013-05-27 01:50:00,65.1,32.9,29.54,West,277,0.0,10.0,30,0.00,,,0.00,meteohub,2013-05-27 07:50:00,
2013-05-27 01:52:00,65.1,32.9,29.54,West,277,2.0,10.0,30,0.00,,,0.00,meteohub,2013-05-27 07:52:00,
2013-05-27 01:53:00,65.1,32.9,29.54,West,277,1.0,10.0,30,0.00,,,0.00,meteohub,2013-05-27 07:53:00,
2013-05-27 01:56:00,64.9,32.7,29.55,West,277,0.0,10.0,30,0.00,,,0.00,meteohub,2013-05-27 07:56:00,
2013-05-27 01:58:00,64.9,32.7,29.55,West,277,0.0,7.0,30,0.00,,,0.00,meteohub,2013-05-27 07:58:00,
2013-05-27 02:00:00,64.9,33.6,29.54,West,277,0.0,7.0,31,0.00,,,0.00,meteohub,2013-05-27 08:00:00,
2013-05-27 02:01:00,64.8,33.4,29.55,West,277,2.0,7.0,31,0.00,,,0.00,meteohub,2013-05-27 08:01:00,
2013-05-27 02:03:00,64.8,34.2,29.54,West,277,1.0,4.0,32,0.00,,,0.00,meteohub,2013-05-27 08:03:00,
2013-05-27 02:05:00,64.6,33.3,29.54,West,277,0.0,4.0,31,0.00,,,0.00,meteohub,2013-05-27 08:05:00,
2013-05-27 02:06:00,64.6,33.3,29.55,West,277,0.0,4.0,31,0.00,,,0.00,meteohub,2013-05-27 08:06:00,
2013-05-27 02:07:00,64.4,33.1,29.55,West,277,0.0,3.0,31,0.00,,,0.00,meteohub,2013-05-27 08:07:00,
2013-05-27 02:09:00,64.0,32.7,29.55,West,277,3.0,3.0,31,0.00,,,0.00,meteohub,2013-05-27 08:09:00,
2013-05-27 02:11:00,63.7,33.3,29.54,West,277,2.0,3.0,32,0.00,,,0.00,meteohub,2013-05-27 08:11:00,
2013-05-27 02:12:00,63.7,33.3,29.54,West,277,3.0,3.0,32,0.00,,,0.00,meteohub,2013-05-27 08:12:00,
2013-05-27 02:14:00,63.0,31.8,29.54,WSW,240,3.0,3.0,31,0.00,,,0.00,meteohub,2013-05-27 08:14:00,
2013-05-27 02:17:00,62.6,32.4,29.54,WSW,251,0.0,6.0,32,0.00,,,0.00,meteohub,2013-05-27 08:17:00,
2013-05-27 02:18:00,62.6,32.4,29.54,WSW,251,2.0,6.0,32,0.00,,,0.00,meteohub,2013-05-27 08:18:00,
2013-05-27 02:19:00,62.6,32.4,29.54,WSW,252,2.0,6.0,32,0.00,,,0.00,meteohub,2013-05-27 08:19:00,
2013-05-27 02:25:00,62.2,32.0,29.54,WNW,284,5.0,6.0,32,0.00,,,0.00,meteohub,2013-05-27 08:25:00,
2013-05-27 02:26:00,62.2,32.0,29.54,West,276,8.0,8.0,32,0.00,,,0.00,meteohub,2013-05-27 08:26:00,
2013-05-27 02:27:00,62.2,32.0,29.54,WNW,294,7.0,7.0,32,0.00,,,0.00,meteohub,2013-05-27 08:27:00,
2013-05-27 02:28:00,62.2,32.0,29.54,WSW,243,10.0,10.0,32,0.00,,,0.00,meteohub,2013-05-27 08:28:00,
2013-05-27 02:31:00,62.1,31.8,29.54,West,260,3.0,6.0,32,0.00,,,0.00,meteohub,2013-05-27 08:31:00,
2013-05-27 02:32:00,62.1,31.8,29.54,WSW,239,5.0,10.0,32,0.00,,,0.00,meteohub,2013-05-27 08:32:00,
2013-05-27 02:33:00,62.1,31.8,29.54,West,261,9.0,10.0,32,0.00,,,0.00,meteohub,2013-05-27 08:33:00,
2013-05-27 02:37:00,62.1,31.8,29.54,WSW,254,3.0,10.0,32,0.00,,,0.00,meteohub,2013-05-27 08:37:00,
2013-05-27 02:38:00,62.1,31.8,29.54,West,275,5.0,10.0,32,0.00,,,0.00,meteohub,2013-05-27 08:38:00,
2013-05-27 02:39:00,62.1,31.8,29.54,WSW,246,7.0,10.0,32,0.00,,,0.00,meteohub,2013-05-27 08:39:00,
2013-05-27 02:42:00,62.2,32.0,29.54,West,273,7.0,11.0,32,0.00,,,0.00,meteohub,2013-05-27 08:42:00,
2013-05-27 02:44:00,62.2,31.3,29.54,West,276,6.0,11.0,31,0.00,,,0.00,meteohub,2013-05-27 08:44:00,
2013-05-27 02:45:00,62.2,31.3,29.54,WSW,246,4.0,11.0,31,0.00,,,0.00,meteohub,2013-05-27 08:45:00,
2013-05-27 02:47:00,62.4,31.5,29.54,West,263,4.0,11.0,31,0.00,,,0.00,meteohub,2013-05-27 08:47:00,
2013-05-27 02:49:00,62.4,31.5,29.54,WSW,254,5.0,11.0,31,0.00,,,0.00,meteohub,2013-05-27 08:49:00,
2013-05-27 02:50:00,62.6,30.7,29.54,WNW,284,7.0,11.0,30,0.00,,,0.00,meteohub,2013-05-27 08:50:00,
2013-05-27 02:51:00,62.6,30.7,29.54,SW,234,5.0,11.0,30,0.00,,,0.00,meteohub,2013-05-27 08:51:00,
2013-05-27 02:53:00,62.8,30.9,29.54,SW,232,7.0,10.0,30,0.00,,,0.00,meteohub,2013-05-27 08:53:00,
2013-05-27 02:56:00,63.0,30.2,29.54,WSW,244,6.0,10.0,29,0.00,,,0.00,meteohub,2013-05-27 08:56:00,
2013-05-27 02:57:00,63.1,30.4,29.54,WSW,252,8.0,12.0,29,0.00,,,0.00,meteohub,2013-05-27 08:57:00,
2013-05-27 02:58:00,63.1,30.4,29.54,SW,225,8.0,12.0,29,0.00,,,0.00,meteohub,2013-05-27 08:58:00,
2013-05-27 03:01:00,63.3,30.6,29.53,WSW,240,5.0,12.0,29,0.00,,,0.00,meteohub,2013-05-27 09:01:00,
2013-05-27 03:03:00,63.7,30.7,29.54,WSW,242,5.0,12.0,29,0.00,,,0.00,meteohub,2013-05-27 09:03:00,
2013-05-27 03:04:00,63.7,30.7,29.54,WSW,254,4.0,12.0,29,0.00,,,0.00,meteohub,2013-05-27 09:04:00,
2013-05-27 03:05:00,63.7,30.7,29.54,West,280,5.0,12.0,29,0.00,,,0.00,meteohub,2013-05-27 09:05:00,
2013-05-27 03:08:00,63.7,30.7,29.54,WSW,240,12.0,12.0,29,0.00,,,0.00,meteohub,2013-05-27 09:08:00,
2013-05-27 03:09:00,63.7,30.7,29.54,SW,230,10.0,12.0,29,0.00,,,0.00,meteohub,2013-05-27 09:09:00,
2013-05-27 03:10:00,63.7,30.7,29.54,SW,219,5.0,12.0,29,0.00,,,0.00,meteohub,2013-05-27 09:10:00,
2013-05-27 03:13:00,63.7,30.7,29.54,SW,233,8.0,12.0,29,0.00,,,0.00,meteohub,2013-05-27 09:13:00,
2013-05-27 03:14:00,63.7,30.7,29.54,WSW,241,5.0,12.0,29,0.00,,,0.00,meteohub,2013-05-27 09:14:00,
2013-05-27 03:15:00,63.7,30.0,29.54,WSW,237,6.0,12.0,28,0.00,,,0.00,meteohub,2013-05-27 09:15:00,
2013-05-27 03:16:00,63.7,30.0,29.54,WSW,238,11.0,12.0,28,0.00,,,0.00,meteohub,2013-05-27 09:16:00,
2013-05-27 03:18:00,63.7,30.0,29.54,WSW,252,8.0,12.0,28,0.00,,,0.00,meteohub,2013-05-27 09:18:00,
2013-05-27 03:20:00,63.7,30.0,29.54,WSW,249,7.0,12.0,28,0.00,,,0.00,meteohub,2013-05-27 09:20:00,
2013-05-27 03:21:00,63.7,30.0,29.54,West,259,5.0,12.0,28,0.00,,,0.00,meteohub,2013-05-27 09:21:00,
2013-05-27 03:23:00,63.7,29.1,29.54,SW,223,8.0,12.0,27,0.00,,,0.00,meteohub,2013-05-27 09:23:00,
2013-05-27 03:24:00,63.7,30.0,29.54,West,279,6.0,12.0,28,0.00,,,0.00,meteohub,2013-05-27 09:24:00,
2013-05-27 03:26:00,63.7,30.0,29.54,WSW,248,6.0,12.0,28,0.00,,,0.00,meteohub,2013-05-27 09:26:00,
2013-05-27 03:27:00,63.5,28.9,29.54,West,261,8.0,13.0,27,0.00,,,0.00,meteohub,2013-05-27 09:27:00,
2013-05-27 03:29:00,63.5,29.8,29.54,WSW,240,10.0,13.0,28,0.00,,,0.00,meteohub,2013-05-27 09:29:00,
2013-05-27 03:30:00,63.5,29.8,29.54,WSW,244,9.0,13.0,28,0.00,,,0.00,meteohub,2013-05-27 09:30:00,
2013-05-27 03:32:00,63.3,29.7,29.54,WSW,240,7.0,13.0,28,0.00,,,0.00,meteohub,2013-05-27 09:32:00,
2013-05-27 03:33:00,63.3,29.7,29.54,SW,231,7.0,13.0,28,0.00,,,0.00,meteohub,2013-05-27 09:33:00,
2013-05-27 03:34:00,63.3,29.7,29.54,WSW,256,5.0,13.0,28,0.00,,,0.00,meteohub,2013-05-27 09:34:00,
2013-05-27 03:37:00,63.1,29.5,29.54,SW,232,7.0,13.0,28,0.00,,,0.00,meteohub,2013-05-27 09:37:00,
2013-05-27 03:39:00,63.1,29.5,29.54,WSW,238,6.0,13.0,28,0.00,,,0.00,meteohub,2013-05-27 09:39:00,
2013-05-27 03:42:00,63.0,29.3,29.54,SW,235,9.0,13.0,28,0.00,,,0.00,meteohub,2013-05-27 09:42:00,
2013-05-27 03:44:00,62.8,29.1,29.54,SW,232,7.0,13.0,28,0.00,,,0.00,meteohub,2013-05-27 09:44:00,
2013-05-27 03:46:00,62.4,28.9,29.54,SW,222,8.0,13.0,28,0.00,,,0.00,meteohub,2013-05-27 09:46:00,
2013-05-27 03:47:00,62.4,28.9,29.54,WSW,241,4.0,13.0,28,0.00,,,0.00,meteohub,2013-05-27 09:47:00,
2013-05-27 03:52:00,62.1,29.5,29.54,SW,235,6.0,12.0,29,0.00,,,0.00,meteohub,2013-05-27 09:52:00,
2013-05-27 03:53:00,62.1,29.5,29.54,SW,217,7.0,12.0,29,0.00,,,0.00,meteohub,2013-05-27 09:53:00,
2013-05-27 03:57:00,61.5,28.9,29.54,WSW,248,5.0,12.0,29,0.00,,,0.00,meteohub,2013-05-27 09:57:00,
2013-05-27 03:58:00,61.5,29.8,29.53,SW,231,9.0,12.0,30,0.00,,,0.00,meteohub,2013-05-27 09:58:00,
2013-05-27 03:59:00,61.3,28.8,29.53,SW,235,7.0,12.0,29,0.00,,,0.00,meteohub,2013-05-27 09:59:00,
2013-05-27 04:00:00,61.3,28.8,29.54,WSW,237,8.0,12.0,29,0.00,,,0.00,meteohub,2013-05-27 10:00:00,
2013-05-27 04:03:00,61.2,29.5,29.54,SW,229,9.0,10.0,30,0.00,,,0.00,meteohub,2013-05-27 10:03:00,
2013-05-27 04:05:00,61.2,28.6,29.54,SW,222,8.0,10.0,29,0.00,,,0.00,meteohub,2013-05-27 10:05:00,
2013-05-27 04:06:00,61.2,28.6,29.54,SW,224,5.0,10.0,29,0.00,,,0.00,meteohub,2013-05-27 10:06:00,
2013-05-27 04:07:00,61.2,28.6,29.54,SW,229,5.0,11.0,29,0.00,,,0.00,meteohub,2013-05-27 10:07:00,
2013-05-27 04:08:00,61.2,28.6,29.54,SW,236,15.0,15.0,29,0.00,,,0.00,meteohub,2013-05-27 10:08:00,
2013-05-27 04:11:00,61.2,28.6,29.54,WSW,238,8.0,11.0,29,0.00,,,0.00,meteohub,2013-05-27 10:11:00,
2013-05-27 04:12:00,61.2,28.6,29.54,SW,229,7.0,15.0,29,0.00,,,0.00,meteohub,2013-05-27 10:12:00,
2013-05-27 04:16:00,61.2,27.9,29.54,WSW,244,7.0,15.0,28,0.00,,,0.00,meteohub,2013-05-27 10:16:00,
2013-05-27 04:17:00,61.2,27.9,29.54,SW,235,5.0,15.0,28,0.00,,,0.00,meteohub,2013-05-27 10:17:00,
2013-05-27 04:18:00,61.2,27.9,29.54,SW,233,5.0,15.0,28,0.00,,,0.00,meteohub,2013-05-27 10:18:00,
2013-05-27 04:19:00,61.2,27.9,29.54,SW,234,7.0,15.0,28,0.00,,,0.00,meteohub,2013-05-27 10:19:00,
2013-05-27 04:22:00,61.3,27.1,29.54,SW,227,3.0,15.0,27,0.00,,,0.00,meteohub,2013-05-27 10:22:00,
2013-05-27 04:24:00,61.3,27.9,29.54,WSW,243,7.0,15.0,28,0.00,,,0.00,meteohub,2013-05-27 10:24:00,
2013-05-27 04:25:00,61.3,27.1,29.54,SW,235,6.0,15.0,27,0.00,,,0.00,meteohub,2013-05-27 10:25:00,
2013-05-27 04:28:00,61.3,27.1,29.54,West,265,8.0,10.0,27,0.00,,,0.00,meteohub,2013-05-27 10:28:00,
2013-05-27 04:30:00,61.3,27.1,29.54,West,277,4.0,10.0,27,0.00,,,0.00,meteohub,2013-05-27 10:30:00,
2013-05-27 04:32:00,61.3,27.1,29.54,WSW,239,8.0,11.0,27,0.00,,,0.00,meteohub,2013-05-27 10:32:00,
2013-05-27 04:34:00,61.3,27.1,29.54,SW,231,5.0,11.0,27,0.00,,,0.00,meteohub,2013-05-27 10:34:00,
2013-05-27 04:35:00,61.3,27.1,29.54,WSW,238,7.0,11.0,27,0.00,,,0.00,meteohub,2013-05-27 10:35:00,
2013-05-27 04:38:00,61.5,26.2,29.54,West,259,7.0,11.0,26,0.00,,,0.00,meteohub,2013-05-27 10:38:00,
2013-05-27 04:39:00,61.5,26.2,29.54,West,265,4.0,11.0,26,0.00,,,0.00,meteohub,2013-05-27 10:39:00,
2013-05-27 04:40:00,61.5,26.2,29.54,SW,236,5.0,11.0,26,0.00,,,0.00,meteohub,2013-05-27 10:40:00,
2013-05-27 04:41:00,61.5,25.3,29.54,WSW,247,6.0,11.0,25,0.00,,,0.00,meteohub,2013-05-27 10:41:00,
2013-05-27 04:42:00,61.5,25.3,29.54,WSW,247,2.0,11.0,25,0.00,,,0.00,meteohub,2013-05-27 10:42:00,
2013-05-27 04:44:00,61.5,25.3,29.54,West,261,3.0,11.0,25,0.00,,,0.00,meteohub,2013-05-27 10:44:00,
2013-05-27 04:46:00,61.5,26.2,29.54,West,265,3.0,11.0,26,0.00,,,0.00,meteohub,2013-05-27 10:46:00,
2013-05-27 04:47:00,61.5,26.2,29.54,WSW,256,4.0,11.0,26,0.00,,,0.00,meteohub,2013-05-27 10:47:00,
2013-05-27 04:48:00,61.3,26.2,29.54,WSW,238,8.0,11.0,26,0.00,,,0.00,meteohub,2013-05-27 10:48:00,
2013-05-27 04:49:00,61.3,26.2,29.55,SW,229,7.0,11.0,26,0.00,,,0.00,meteohub,2013-05-27 10:49:00,
2013-05-27 04:50:00,61.3,26.2,29.54,WSW,241,10.0,11.0,26,0.00,,,0.00,meteohub,2013-05-27 10:50:00,
2013-05-27 04:52:00,61.3,26.2,29.54,SW,221,11.0,11.0,26,0.00,,,0.00,meteohub,2013-05-27 10:52:00,
2013-05-27 04:53:00,61.2,26.1,29.54,SW,228,6.0,11.0,26,0.00,,,0.00,meteohub,2013-05-27 10:53:00,
2013-05-27 04:56:00,61.2,26.1,29.54,SSW,213,10.0,13.0,26,0.00,,,0.00,meteohub,2013-05-27 10:56:00,
2013-05-27 04:57:00,61.2,26.1,29.54,SW,228,7.0,13.0,26,0.00,,,0.00,meteohub,2013-05-27 10:57:00,
2013-05-27 04:59:00,61.3,25.2,29.54,SW,225,11.0,13.0,25,0.00,,,0.00,meteohub,2013-05-27 10:59:00,
2013-05-27 05:00:00,61.3,25.2,29.54,SW,232,8.0,13.0,25,0.00,,,0.00,meteohub,2013-05-27 11:00:00,
2013-05-27 05:02:00,61.3,25.2,29.54,SSW,202,6.0,13.0,25,0.00,,,0.00,meteohub,2013-05-27 11:02:00,
2013-05-27 05:04:00,61.5,25.3,29.54,WSW,241,10.0,13.0,25,0.00,,,0.00,meteohub,2013-05-27 11:04:00,
2013-05-27 05:05:00,61.5,25.3,29.54,WSW,242,6.0,13.0,25,0.00,,,0.00,meteohub,2013-05-27 11:05:00,
2013-05-27 05:08:00,61.5,25.3,29.54,SW,229,9.0,15.0,25,0.00,,,0.00,meteohub,2013-05-27 11:08:00,
2013-05-27 05:09:00,61.5,25.3,29.55,SW,230,8.0,15.0,25,0.00,,,0.00,meteohub,2013-05-27 11:09:00,
2013-05-27 05:10:00,61.5,24.4,29.54,West,272,3.0,15.0,24,0.00,,,0.00,meteohub,2013-05-27 11:10:00,
2013-05-27 05:11:00,61.5,24.4,29.54,SW,227,7.0,15.0,24,0.00,,,0.00,meteohub,2013-05-27 11:11:00,
2013-05-27 05:16:00,62.1,23.9,29.54,WSW,244,1.0,13.0,23,0.00,,,0.00,meteohub,2013-05-27 11:16:00,
2013-05-27 05:17:00,62.1,22.8,29.54,WSW,238,3.0,13.0,22,0.00,,,0.00,meteohub,2013-05-27 11:17:00,
2013-05-27 05:18:00,62.2,23.0,29.54,WSW,238,5.0,13.0,22,0.00,,,0.00,meteohub,2013-05-27 11:18:00,
2013-05-27 05:20:00,62.2,23.0,29.55,SW,236,5.0,13.0,22,0.00,,,0.00,meteohub,2013-05-27 11:20:00,
2013-05-27 05:22:00,62.4,23.0,29.55,WSW,242,7.0,13.0,22,0.00,,,0.00,meteohub,2013-05-27 11:22:00,
2013-05-27 05:24:00,62.4,23.0,29.55,WSW,240,3.0,13.0,22,0.00,,,0.00,meteohub,2013-05-27 11:24:00,
2013-05-27 05:25:00,62.4,23.0,29.55,SW,223,5.0,12.0,22,0.00,,,0.00,meteohub,2013-05-27 11:25:00,
2013-05-27 05:26:00,62.6,23.2,29.55,SW,231,4.0,12.0,22,0.00,,,0.00,meteohub,2013-05-27 11:26:00,
2013-05-27 05:29:00,62.6,23.2,29.55,WSW,243,5.0,12.0,22,0.00,,,0.00,meteohub,2013-05-27 11:29:00,
2013-05-27 05:30:00,62.6,23.2,29.55,West,271,5.0,12.0,22,0.00,,,0.00,meteohub,2013-05-27 11:30:00,
2013-05-27 05:31:00,62.6,23.2,29.55,SW,225,6.0,12.0,22,0.00,,,0.00,meteohub,2013-05-27 11:31:00,
2013-05-27 05:32:00,62.6,23.2,29.55,WSW,243,8.0,12.0,22,0.00,,,0.00,meteohub,2013-05-27 11:32:00,
2013-05-27 05:34:00,62.4,23.0,29.55,SW,218,7.0,12.0,22,0.00,,,0.00,meteohub,2013-05-27 11:34:00,
2013-05-27 05:35:00,62.4,23.0,29.55,SW,236,5.0,10.0,22,0.00,,,0.00,meteohub,2013-05-27 11:35:00,
2013-05-27 05:37:00,62.4,23.0,29.55,SW,236,6.0,10.0,22,0.00,,,0.00,meteohub,2013-05-27 11:37:00,
2013-05-27 05:38:00,62.4,24.1,29.55,SW,236,7.0,10.0,23,0.00,,,0.00,meteohub,2013-05-27 11:38:00,
2013-05-27 05:39:00,62.2,23.9,29.55,SW,234,6.0,10.0,23,0.00,,,0.00,meteohub,2013-05-27 11:39:00,
2013-05-27 05:40:00,62.2,23.9,29.55,WSW,241,4.0,10.0,23,0.00,,,0.00,meteohub,2013-05-27 11:40:00,
2013-05-27 05:45:00,62.1,23.9,29.55,SW,229,9.0,10.0,23,0.00,,,0.00,meteohub,2013-05-27 11:45:00,
2013-05-27 05:46:00,62.1,23.9,29.55,WSW,243,7.0,10.0,23,0.00,,,0.00,meteohub,2013-05-27 11:46:00,
2013-05-27 05:51:00,61.9,23.7,29.55,WSW,242,9.0,10.0,23,0.00,,,0.00,meteohub,2013-05-27 11:51:00,
2013-05-27 05:52:00,61.9,23.7,29.55,SW,232,10.0,10.0,23,0.00,,,0.00,meteohub,2013-05-27 11:52:00,
2013-05-27 05:56:00,61.7,24.6,29.55,WSW,252,8.0,11.0,24,0.00,,,0.00,meteohub,2013-05-27 11:56:00,
2013-05-27 05:57:00,61.5,23.4,29.55,WSW,243,9.0,11.0,23,0.00,,,0.00,meteohub,2013-05-27 11:57:00,
2013-05-27 05:58:00,61.5,23.4,29.55,SW,236,9.0,11.0,23,0.00,,,0.00,meteohub,2013-05-27 11:58:00,
2013-05-27 06:01:00,61.5,23.4,29.55,SW,236,8.0,11.0,23,0.00,,,0.00,meteohub,2013-05-27 12:01:00,
2013-05-27 06:02:00,61.5,23.4,29.55,WSW,248,4.0,11.0,23,0.00,,,0.00,meteohub,2013-05-27 12:02:00,
2013-05-27 06:03:00,61.5,23.4,29.55,SW,230,3.0,11.0,23,0.00,,,0.00,meteohub,2013-05-27 12:03:00,
2013-05-27 06:04:00,61.5,24.4,29.55,SW,233,8.0,11.0,24,0.00,,,0.00,meteohub,2013-05-27 12:04:00,
2013-05-27 06:08:00,61.5,23.4,29.55,West,265,4.0,12.0,23,0.00,,,0.00,meteohub,2013-05-27 12:08:00,
2013-05-27 06:09:00,61.5,23.4,29.55,West,265,4.0,12.0,23,0.00,,,0.00,meteohub,2013-05-27 12:09:00,
2013-05-27 06:12:00,61.5,23.4,29.56,West,271,2.0,12.0,23,0.00,,,0.00,meteohub,2013-05-27 12:12:00,
2013-05-27 06:14:00,61.9,25.7,29.56,West,271,2.0,12.0,25,0.00,,,0.00,meteohub,2013-05-27 12:14:00,
2013-05-27 06:15:00,61.7,27.3,29.57,ESE,105,8.0,12.0,27,0.00,,,0.00,meteohub,2013-05-27 12:15:00,
2013-05-27 06:17:00,61.3,29.7,29.57,ESE,113,8.0,12.0,30,0.00,,,0.00,meteohub,2013-05-27 12:17:00,
2013-05-27 06:18:00,61.2,29.5,29.57,ESE,115,6.0,12.0,30,0.00,,,0.00,meteohub,2013-05-27 12:18:00,
2013-05-27 06:20:00,61.0,30.2,29.57,ESE,123,7.0,12.0,31,0.00,,,0.00,meteohub,2013-05-27 12:20:00,
2013-05-27 06:21:00,60.6,26.4,29.57,ESE,113,1.0,12.0,27,0.00,,,0.00,meteohub,2013-05-27 12:21:00,
2013-05-27 06:23:00,60.6,24.6,29.57,WSW,246,6.0,12.0,25,0.00,,,0.00,meteohub,2013-05-27 12:23:00,
2013-05-27 06:24:00,60.6,26.4,29.56,West,271,6.0,12.0,27,0.00,,,0.00,meteohub,2013-05-27 12:24:00,
2013-05-27 06:26:00,60.6,28.2,29.56,WNW,292,2.0,12.0,29,0.00,,,0.00,meteohub,2013-05-27 12:26:00,
2013-05-27 06:27:00,60.8,28.4,29.56,WNW,295,3.0,13.0,29,0.00,,,0.00,meteohub,2013-05-27 12:27:00,
2013-05-27 06:31:00,60.8,30.0,29.56,ENE,65,2.0,13.0,31,0.00,,,0.00,meteohub,2013-05-27 12:31:00,
2013-05-27 06:32:00,60.8,31.5,29.57,ENE,65,2.0,13.0,33,0.00,,,0.00,meteohub,2013-05-27 12:32:00,
2013-05-27 06:34:00,60.8,31.5,29.57,ENE,69,2.0,13.0,33,0.00,,,0.00,meteohub,2013-05-27 12:34:00,
2013-05-27 06:37:00,60.8,33.6,29.57,ENE,69,4.0,10.0,36,0.00,,,0.00,meteohub,2013-05-27 12:37:00,
2013-05-27 06:38:00,60.8,33.6,29.57,East,94,7.0,10.0,36,0.00,,,0.00,meteohub,2013-05-27 12:38:00,
2013-05-27 06:39:00,60.8,32.9,29.57,East,81,4.0,10.0,35,0.00,,,0.00,meteohub,2013-05-27 12:39:00,
2013-05-27 06:43:00,60.6,34.2,29.57,South,185,2.0,8.0,37,0.00,,,0.00,meteohub,2013-05-27 12:43:00,
2013-05-27 06:44:00,60.6,34.9,29.57,South,185,0.0,8.0,38,0.00,,,0.00,meteohub,2013-05-27 12:44:00,
2013-05-27 06:45:00,60.6,34.2,29.57,SSE,152,1.0,8.0,37,0.00,,,0.00,meteohub,2013-05-27 12:45:00,
2013-05-27 06:48:00,60.6,34.9,29.57,East,83,1.0,8.0,38,0.00,,,0.00,meteohub,2013-05-27 12:48:00,
2013-05-27 06:49:00,60.6,34.9,29.57,East,83,1.0,8.0,38,0.00,,,0.00,meteohub,2013-05-27 12:49:00,
2013-05-27 06:50:00,60.6,34.9,29.57,East,83,0.0,8.0,38,0.00,,,0.00,meteohub,2013-05-27 12:50:00,
2013-05-27 06:51:00,60.6,35.6,29.57,East,83,1.0,8.0,39,0.00,,,0.00,meteohub,2013-05-27 12:51:00,
2013-05-27 06:55:00,60.6,37.4,29.57,East,94,4.0,8.0,42,0.00,,,0.00,meteohub,2013-05-27 12:55:00,
2013-05-27 06:57:00,60.6,37.4,29.57,East,92,1.0,5.0,42,0.00,,,0.00,meteohub,2013-05-27 12:57:00,
2013-05-27 06:58:00,60.6,37.9,29.58,East,90,0.0,5.0,43,0.00,,,0.00,meteohub,2013-05-27 12:58:00,
2013-05-27 07:02:00,60.8,38.1,29.57,ENE,63,1.0,5.0,43,0.00,,,0.00,meteohub,2013-05-27 13:02:00,
2013-05-27 07:03:00,61.0,38.8,29.57,ENE,63,0.0,5.0,44,0.00,,,0.00,meteohub,2013-05-27 13:03:00,
2013-05-27 07:05:00,61.0,38.8,29.57,ENE,65,2.0,5.0,44,0.00,,,0.00,meteohub,2013-05-27 13:05:00,
2013-05-27 07:07:00,61.0,38.3,29.57,ENE,66,1.0,5.0,43,0.00,,,0.00,meteohub,2013-05-27 13:07:00,
2013-05-27 07:08:00,61.0,38.3,29.57,ENE,66,1.0,5.0,43,0.00,,,0.00,meteohub,2013-05-27 13:08:00,
2013-05-27 07:11:00,61.0,38.3,29.57,ENE,66,1.0,5.0,43,0.00,,,0.00,meteohub,2013-05-27 13:11:00,
2013-05-27 07:12:00,61.0,38.8,29.57,ENE,66,2.0,5.0,44,0.00,,,0.00,meteohub,2013-05-27 13:12:00,
2013-05-27 07:13:00,61.0,39.6,29.57,ENE,70,0.0,5.0,45,0.00,,,0.00,meteohub,2013-05-27 13:13:00,
2013-05-27 07:15:00,61.0,39.6,29.57,ENE,70,0.0,5.0,45,0.00,,,0.00,meteohub,2013-05-27 13:15:00,
2013-05-27 07:17:00,61.0,38.3,29.57,ENE,70,2.0,3.0,43,0.00,,,0.00,meteohub,2013-05-27 13:17:00,
2013-05-27 07:18:00,61.2,39.0,29.57,ENE,71,2.0,3.0,44,0.00,,,0.00,meteohub,2013-05-27 13:18:00,
2013-05-27 07:22:00,61.2,39.7,29.57,SSE,150,0.0,5.0,45,0.00,,,0.00,meteohub,2013-05-27 13:22:00,
2013-05-27 07:23:00,61.2,41.4,29.57,SSE,150,0.0,5.0,48,0.00,,,0.00,meteohub,2013-05-27 13:23:00,
2013-05-27 07:24:00,61.2,40.8,29.57,SSE,150,0.0,5.0,47,0.00,,,0.00,meteohub,2013-05-27 13:24:00,
2013-05-27 07:25:00,61.3,39.7,29.57,SSE,150,0.0,5.0,45,0.00,,,0.00,meteohub,2013-05-27 13:25:00,
2013-05-27 07:26:00,61.3,39.2,29.57,SSE,150,0.0,5.0,44,0.00,,,0.00,meteohub,2013-05-27 13:26:00,
2013-05-27 07:28:00,61.3,38.7,29.57,SSE,153,4.0,5.0,43,0.00,,,0.00,meteohub,2013-05-27 13:28:00,
2013-05-27 07:29:00,61.5,39.9,29.56,SSE,154,4.0,5.0,45,0.00,,,0.00,meteohub,2013-05-27 13:29:00,
2013-05-27 07:30:00,61.5,39.4,29.56,South,181,1.0,5.0,44,0.00,,,0.00,meteohub,2013-05-27 13:30:00,
2013-05-27 07:31:00,61.5,39.9,29.56,South,181,1.0,5.0,45,0.00,,,0.00,meteohub,2013-05-27 13:31:00,
2013-05-27 07:32:00,61.5,39.4,29.57,South,186,0.0,5.0,44,0.00,,,0.00,meteohub,2013-05-27 13:32:00,
2013-05-27 07:33:00,61.5,38.8,29.57,South,186,0.0,5.0,43,0.00,,,0.00,meteohub,2013-05-27 13:33:00,
2013-05-27 07:34:00,61.5,38.8,29.57,South,186,0.0,5.0,43,0.00,,,0.00,meteohub,2013-05-27 13:34:00,
2013-05-27 07:37:00,61.7,39.0,29.56,South,191,6.0,6.0,43,0.00,,,0.00,meteohub,2013-05-27 13:37:00,
2013-05-27 07:38:00,61.7,39.6,29.56,SSW,196,1.0,5.0,44,0.00,,,0.00,meteohub,2013-05-27 13:38:00,
2013-05-27 07:39:00,61.7,39.6,29.56,NW,307,2.0,5.0,44,0.00,,,0.00,meteohub,2013-05-27 13:39:00,
2013-05-27 07:43:00,61.9,39.2,29.56,SW,217,3.0,7.0,43,0.00,,,0.00,meteohub,2013-05-27 13:43:00,
2013-05-27 07:44:00,61.9,39.2,29.56,SW,217,2.0,7.0,43,0.00,,,0.00,meteohub,2013-05-27 13:44:00,
2013-05-27 07:45:00,61.9,40.3,29.56,SW,223,0.0,7.0,45,0.00,,,0.00,meteohub,2013-05-27 13:45:00,
2013-05-27 07:46:00,62.1,39.9,29.56,North,5,3.0,7.0,44,0.00,,,0.00,meteohub,2013-05-27 13:46:00,
2013-05-27 07:51:00,62.4,39.6,29.56,WSW,238,5.0,7.0,43,0.00,,,0.00,meteohub,2013-05-27 13:51:00,
2013-05-27 07:52:00,62.4,41.4,29.56,SW,231,3.0,7.0,46,0.00,,,0.00,meteohub,2013-05-27 13:52:00,
2013-05-27 07:53:00,62.6,39.7,29.56,SW,221,0.0,7.0,43,0.00,,,0.00,meteohub,2013-05-27 13:53:00,
2013-05-27 07:54:00,62.8,39.4,29.55,SW,221,2.0,7.0,42,0.00,,,0.00,meteohub,2013-05-27 13:54:00,
2013-05-27 07:56:00,63.0,37.6,29.55,SW,221,0.0,6.0,39,0.00,,,0.00,meteohub,2013-05-27 13:56:00,
2013-05-27 07:57:00,63.1,39.0,29.56,SW,221,0.0,6.0,41,0.00,,,0.00,meteohub,2013-05-27 13:57:00,
2013-05-27 07:59:00,63.3,40.5,29.55,SW,221,1.0,6.0,43,0.00,,,0.00,meteohub,2013-05-27 13:59:00,
2013-05-27 08:00:00,63.5,39.4,29.55,SW,221,2.0,6.0,41,0.00,,,0.00,meteohub,2013-05-27 14:00:00,
2013-05-27 08:02:00,63.9,40.3,29.55,SW,221,0.0,5.0,42,0.00,,,0.00,meteohub,2013-05-27 14:02:00,
2013-05-27 08:03:00,63.9,40.3,29.55,SW,221,0.0,5.0,42,0.00,,,0.00,meteohub,2013-05-27 14:03:00,
2013-05-27 08:04:00,64.2,40.1,29.55,SW,221,0.0,5.0,41,0.00,,,0.00,meteohub,2013-05-27 14:04:00,
2013-05-27 08:07:00,64.6,41.0,29.55,SW,221,0.0,5.0,42,0.00,,,0.00,meteohub,2013-05-27 14:07:00,
2013-05-27 08:08:00,64.8,40.5,29.55,SW,221,0.0,5.0,41,0.00,,,0.00,meteohub,2013-05-27 14:08:00,
2013-05-27 08:09:00,64.8,40.5,29.55,SW,221,0.0,5.0,41,0.00,,,0.00,meteohub,2013-05-27 14:09:00,
2013-05-27 08:10:00,64.9,39.4,29.55,SW,221,1.0,5.0,39,0.00,,,0.00,meteohub,2013-05-27 14:10:00,
2013-05-27 08:14:00,65.5,39.9,29.56,SW,221,0.0,3.0,39,0.00,,,0.00,meteohub,2013-05-27 14:14:00,
2013-05-27 08:15:00,65.7,41.4,29.55,SW,221,0.0,3.0,41,0.00,,,0.00,meteohub,2013-05-27 14:15:00,
2013-05-27 08:16:00,65.7,41.4,29.55,SW,221,1.0,3.0,41,0.00,,,0.00,meteohub,2013-05-27 14:16:00,
2013-05-27 08:17:00,65.8,40.1,29.55,SW,221,0.0,2.0,39,0.00,,,0.00,meteohub,2013-05-27 14:17:00,
2013-05-27 08:20:00,66.2,41.7,29.55,SW,221,0.0,2.0,41,0.00,,,0.00,meteohub,2013-05-27 14:20:00,
2013-05-27 08:21:00,66.4,41.4,29.55,SW,220,1.0,2.0,40,0.00,,,0.00,meteohub,2013-05-27 14:21:00,
2013-05-27 08:22:00,66.6,40.8,29.55,SSW,209,1.0,2.0,39,0.00,,,0.00,meteohub,2013-05-27 14:22:00,
2013-05-27 08:26:00,67.1,40.6,29.55,SSW,209,0.0,2.0,38,0.00,,,0.00,meteohub,2013-05-27 14:26:00,
2013-05-27 08:27:00,67.3,39.4,29.55,SSW,209,3.0,3.0,36,0.00,,,0.00,meteohub,2013-05-27 14:27:00,
2013-05-27 08:30:00,67.6,40.5,29.55,SSW,209,0.0,3.0,37,0.00,,,0.00,meteohub,2013-05-27 14:30:00,
2013-05-27 08:32:00,67.6,39.0,29.55,SSW,196,2.0,3.0,35,0.00,,,0.00,meteohub,2013-05-27 14:32:00,
2013-05-27 08:33:00,67.8,39.9,29.55,SSW,196,1.0,3.0,36,0.00,,,0.00,meteohub,2013-05-27 14:33:00,
2013-05-27 08:35:00,68.0,38.7,29.55,SSW,196,0.0,3.0,34,0.00,,,0.00,meteohub,2013-05-27 14:35:00,
2013-05-27 08:38:00,68.4,38.8,29.55,SSW,196,1.0,3.0,34,0.00,,,0.00,meteohub,2013-05-27 14:38:00,
2013-05-27 08:41:00,68.5,38.3,29.55,SSW,196,1.0,3.0,33,0.00,,,0.00,meteohub,2013-05-27 14:41:00,
2013-05-27 08:42:00,68.7,39.9,29.54,SSW,196,1.0,3.0,35,0.00,,,0.00,meteohub,2013-05-27 14:42:00,
2013-05-27 08:43:00,68.7,39.2,29.54,SSW,196,0.0,3.0,34,0.00,,,0.00,meteohub,2013-05-27 14:43:00,
2013-05-27 08:47:00,69.3,40.5,29.54,SSW,196,0.0,3.0,35,0.00,,,0.00,meteohub,2013-05-27 14:47:00,
2013-05-27 08:49:00,69.3,40.5,29.54,SSW,196,0.0,3.0,35,0.00,,,0.00,meteohub,2013-05-27 14:49:00,
2013-05-27 08:50:00,69.4,40.6,29.54,SSW,196,1.0,3.0,35,0.00,,,0.00,meteohub,2013-05-27 14:50:00,
2013-05-27 08:54:00,70.0,40.3,29.54,SSW,196,0.0,3.0,34,0.00,,,0.00,meteohub,2013-05-27 14:54:00,
2013-05-27 08:55:00,70.0,39.6,29.54,SSW,196,1.0,3.0,33,0.00,,,0.00,meteohub,2013-05-27 14:55:00,
2013-05-27 08:56:00,70.2,40.5,29.54,SSW,195,1.0,4.0,34,0.00,,,0.00,meteohub,2013-05-27 14:56:00,
2013-05-27 08:58:00,70.3,39.9,29.54,South,173,5.0,5.0,33,0.00,,,0.00,meteohub,2013-05-27 14:58:00,
2013-05-27 09:00:00,70.5,42.3,29.54,SSE,156,2.0,4.0,36,0.00,,,0.00,meteohub,2013-05-27 15:00:00,
2013-05-27 09:01:00,70.5,40.8,29.54,SE,146,4.0,4.0,34,0.00,,,0.00,meteohub,2013-05-27 15:01:00,
2013-05-27 09:05:00,70.9,41.2,29.54,South,171,0.0,5.0,34,0.00,,,0.00,meteohub,2013-05-27 15:05:00,
2013-05-27 09:06:00,70.9,41.9,29.54,South,171,2.0,5.0,35,0.00,,,0.00,meteohub,2013-05-27 15:06:00,
2013-05-27 09:07:00,71.1,43.5,29.54,South,171,0.0,6.0,37,0.00,,,0.00,meteohub,2013-05-27 15:07:00,
2013-05-27 09:11:00,71.4,40.8,29.54,SSE,168,2.0,6.0,33,0.00,,,0.00,meteohub,2013-05-27 15:11:00,
2013-05-27 09:12:00,71.4,40.1,29.54,SSE,168,0.0,6.0,32,0.00,,,0.00,meteohub,2013-05-27 15:12:00,
2013-05-27 09:14:00,71.8,41.2,29.54,SW,229,3.0,6.0,33,0.00,,,0.00,meteohub,2013-05-27 15:14:00,
2013-05-27 09:15:00,72.0,41.4,29.53,SSW,210,2.0,6.0,33,0.00,,,0.00,meteohub,2013-05-27 15:15:00,
2013-05-27 09:16:00,72.0,39.7,29.53,South,178,2.0,6.0,31,0.00,,,0.00,meteohub,2013-05-27 15:16:00,
2013-05-27 09:18:00,72.1,41.4,29.53,ESE,111,2.0,6.0,33,0.00,,,0.00,meteohub,2013-05-27 15:18:00,
2013-05-27 09:19:00,72.1,39.9,29.53,ESE,110,0.0,6.0,31,0.00,,,0.00,meteohub,2013-05-27 15:19:00,
2013-05-27 09:20:00,72.1,40.6,29.53,ESE,110,0.0,6.0,32,0.00,,,0.00,meteohub,2013-05-27 15:20:00,
2013-05-27 09:21:00,72.3,39.9,29.53,ESE,117,0.0,6.0,31,0.00,,,0.00,meteohub,2013-05-27 15:21:00,
2013-05-27 09:23:00,72.7,40.3,29.53,South,178,0.0,5.0,31,0.00,,,0.00,meteohub,2013-05-27 15:23:00,
2013-05-27 09:26:00,72.9,37.8,29.53,South,178,0.0,5.0,28,0.00,,,0.00,meteohub,2013-05-27 15:26:00,
2013-05-27 09:27:00,73.0,36.1,29.53,South,178,0.0,6.0,26,0.00,,,0.00,meteohub,2013-05-27 15:27:00,
2013-05-27 09:28:00,73.0,35.1,29.53,South,178,1.0,6.0,25,0.00,,,0.00,meteohub,2013-05-27 15:28:00,
2013-05-27 09:31:00,73.6,34.5,29.53,SSW,208,5.0,6.0,24,0.00,,,0.00,meteohub,2013-05-27 15:31:00,
2013-05-27 09:33:00,74.1,37.0,29.53,South,190,3.0,6.0,26,0.00,,,0.00,meteohub,2013-05-27 15:33:00,
2013-05-27 09:34:00,74.1,37.9,29.53,SSW,213,4.0,6.0,27,0.00,,,0.00,meteohub,2013-05-27 15:34:00,
2013-05-27 09:35:00,74.3,38.1,29.53,SW,220,3.0,6.0,27,0.00,,,0.00,meteohub,2013-05-27 15:35:00,
2013-05-27 09:37:00,74.7,40.3,29.53,WSW,254,6.0,8.0,29,0.00,,,0.00,meteohub,2013-05-27 15:37:00,
2013-05-27 09:40:00,75.2,37.0,29.53,WSW,238,6.0,8.0,25,0.00,,,0.00,meteohub,2013-05-27 15:40:00,
2013-05-27 09:43:00,75.7,35.2,29.52,WNW,285,7.0,9.0,23,0.00,,,0.00,meteohub,2013-05-27 15:43:00,
2013-05-27 09:44:00,75.9,35.4,29.53,NW,313,12.0,12.0,23,0.00,,,0.00,meteohub,2013-05-27 15:44:00,
2013-05-27 09:45:00,76.1,33.3,29.53,West,274,7.0,9.0,21,0.00,,,0.00,meteohub,2013-05-27 15:45:00,
2013-05-27 09:48:00,76.6,32.5,29.53,West,272,6.0,12.0,20,0.00,,,0.00,meteohub,2013-05-27 15:48:00,
2013-05-27 09:49:00,76.6,30.0,29.52,WNW,296,7.0,12.0,18,0.00,,,0.00,meteohub,2013-05-27 15:49:00,
2013-05-27 09:52:00,77.2,33.1,29.52,NNW,337,5.0,14.0,20,0.00,,,0.00,meteohub,2013-05-27 15:52:00,
2013-05-27 09:53:00,77.2,30.4,29.52,NNW,344,3.0,14.0,18,0.00,,,0.00,meteohub,2013-05-27 15:53:00,
2013-05-27 09:54:00,77.4,29.1,29.53,NW,326,6.0,14.0,17,0.00,,,0.00,meteohub,2013-05-27 15:54:00,
2013-05-27 09:55:00,77.4,29.1,29.52,NW,319,5.0,14.0,17,0.00,,,0.00,meteohub,2013-05-27 15:55:00,
2013-05-27 09:57:00,77.4,29.1,29.52,WNW,301,8.0,15.0,17,0.00,,,0.00,meteohub,2013-05-27 15:57:00,
2013-05-27 09:59:00,77.5,33.3,29.52,NNW,346,4.0,15.0,20,0.00,,,0.00,meteohub,2013-05-27 15:59:00,
2013-05-27 10:00:00,77.7,27.9,29.52,North,349,5.0,15.0,16,0.00,,,0.00,meteohub,2013-05-27 16:00:00,
2013-05-27 10:02:00,77.7,29.5,29.52,NNW,333,4.0,15.0,17,0.00,,,0.00,meteohub,2013-05-27 16:02:00,
2013-05-27 10:03:00,77.9,28.0,29.52,NW,311,3.0,15.0,16,0.00,,,0.00,meteohub,2013-05-27 16:03:00,
2013-05-27 10:04:00,78.1,28.2,29.52,WNW,302,8.0,15.0,16,0.00,,,0.00,meteohub,2013-05-27 16:04:00,
2013-05-27 10:07:00,78.1,28.2,29.52,NW,319,5.0,12.0,16,0.00,,,0.00,meteohub,2013-05-27 16:07:00,
2013-05-27 10:10:00,78.3,29.8,29.52,West,277,9.0,12.0,17,0.00,,,0.00,meteohub,2013-05-27 16:10:00,
2013-05-27 10:12:00,78.6,30.2,29.52,West,277,8.0,14.0,17,0.00,,,0.00,meteohub,2013-05-27 16:12:00,
2013-05-27 10:15:00,78.8,30.4,29.52,West,281,13.0,14.0,17,0.00,,,0.00,meteohub,2013-05-27 16:15:00,
2013-05-27 10:18:00,79.0,27.3,29.52,NW,309,14.0,16.0,15,0.00,,,0.00,meteohub,2013-05-27 16:18:00,
2013-05-27 10:19:00,79.2,27.5,29.52,NW,307,14.0,16.0,15,0.00,,,0.00,meteohub,2013-05-27 16:19:00,
2013-05-27 10:22:00,79.2,29.1,29.52,NNW,339,5.0,19.0,16,0.00,,,0.00,meteohub,2013-05-27 16:22:00,
2013-05-27 10:24:00,79.3,30.7,29.52,NW,311,8.0,19.0,17,0.00,,,0.00,meteohub,2013-05-27 16:24:00,
2013-05-27 10:25:00,79.3,30.7,29.52,NNW,332,4.0,19.0,17,0.00,,,0.00,meteohub,2013-05-27 16:25:00,
2013-05-27 10:27:00,79.3,30.7,29.52,NW,325,5.0,19.0,17,0.00,,,0.00,meteohub,2013-05-27 16:27:00,
2013-05-27 10:29:00,79.3,29.3,29.52,NW,318,3.0,19.0,16,0.00,,,0.00,meteohub,2013-05-27 16:29:00,
2013-05-27 10:30:00,79.2,25.9,29.52,NNW,331,7.0,19.0,14,0.00,,,0.00,meteohub,2013-05-27 16:30:00,
2013-05-27 10:32:00,79.2,29.1,29.52,NW,322,4.0,19.0,16,0.00,,,0.00,meteohub,2013-05-27 16:32:00,
2013-05-27 10:34:00,79.2,32.0,29.52,NW,320,7.0,19.0,18,0.00,,,0.00,meteohub,2013-05-27 16:34:00,
2013-05-27 10:35:00,79.2,29.1,29.52,NW,323,4.0,19.0,16,0.00,,,0.00,meteohub,2013-05-27 16:35:00,
2013-05-27 10:36:00,79.2,30.6,29.52,NNW,345,5.0,19.0,17,0.00,,,0.00,meteohub,2013-05-27 16:36:00,
2013-05-27 10:38:00,79.2,24.1,29.52,NNW,328,6.0,16.0,13,0.00,,,0.00,meteohub,2013-05-27 16:38:00,
2013-05-27 10:40:00,79.0,25.7,29.52,NNE,12,9.0,16.0,14,0.00,,,0.00,meteohub,2013-05-27 16:40:00,
2013-05-27 10:41:00,79.0,27.3,29.52,North,355,13.0,16.0,15,0.00,,,0.00,meteohub,2013-05-27 16:41:00,
2013-05-27 10:42:00,78.8,27.3,29.52,NNW,342,7.0,15.0,15,0.00,,,0.00,meteohub,2013-05-27 16:42:00,
2013-05-27 10:43:00,78.8,25.5,29.52,NNW,338,3.0,15.0,14,0.00,,,0.00,meteohub,2013-05-27 16:43:00,
2013-05-27 10:45:00,79.0,25.7,29.52,NNE,25,5.0,15.0,14,0.00,,,0.00,meteohub,2013-05-27 16:45:00,
2013-05-27 10:46:00,79.0,27.3,29.52,NW,323,1.0,15.0,15,0.00,,,0.00,meteohub,2013-05-27 16:46:00,
2013-05-27 10:47:00,79.0,28.9,29.52,North,355,8.0,15.0,16,0.00,,,0.00,meteohub,2013-05-27 16:47:00,
2013-05-27 10:49:00,78.6,23.7,29.52,NNW,342,3.0,15.0,13,0.00,,,0.00,meteohub,2013-05-27 16:49:00,
2013-05-27 10:50:00,78.6,23.7,29.52,NNW,335,8.0,15.0,13,0.00,,,0.00,meteohub,2013-05-27 16:50:00,
2013-05-27 10:51:00,78.6,23.7,29.52,NNW,340,9.0,14.0,13,0.00,,,0.00,meteohub,2013-05-27 16:51:00,
2013-05-27 10:53:00,79.0,31.8,29.52,NNW,340,3.0,14.0,18,0.00,,,0.00,meteohub,2013-05-27 16:53:00,
2013-05-27 10:55:00,79.2,27.5,29.52,WNW,289,8.0,14.0,15,0.00,,,0.00,meteohub,2013-05-27 16:55:00,
2013-05-27 10:57:00,79.3,27.7,29.52,NNW,341,3.0,14.0,15,0.00,,,0.00,meteohub,2013-05-27 16:57:00,
2013-05-27 11:00:00,79.5,33.6,29.52,North,350,7.0,14.0,19,0.00,,,0.00,meteohub,2013-05-27 17:00:00,
2013-05-27 11:02:00,79.5,26.1,29.52,NNW,342,6.0,15.0,14,0.00,,,0.00,meteohub,2013-05-27 17:02:00,
2013-05-27 11:03:00,79.3,26.1,29.52,North,0,10.0,15.0,14,0.00,,,0.00,meteohub,2013-05-27 17:03:00,
2013-05-27 11:05:00,79.3,30.7,29.52,North,9,6.0,15.0,17,0.00,,,0.00,meteohub,2013-05-27 17:05:00,
2013-05-27 11:06:00,79.5,30.9,29.52,NNW,340,6.0,15.0,17,0.00,,,0.00,meteohub,2013-05-27 17:06:00,
2013-05-27 11:10:00,79.3,26.1,29.52,North,355,6.0,15.0,14,0.00,,,0.00,meteohub,2013-05-27 17:10:00,
2013-05-27 11:11:00,79.3,26.1,29.52,NW,323,11.0,15.0,14,0.00,,,0.00,meteohub,2013-05-27 17:11:00,
2013-05-27 11:12:00,79.3,30.7,29.52,NW,310,8.0,15.0,17,0.00,,,0.00,meteohub,2013-05-27 17:12:00,
2013-05-27 11:13:00,79.3,30.7,29.52,NNW,343,5.0,15.0,17,0.00,,,0.00,meteohub,2013-05-27 17:13:00,
2013-05-27 11:15:00,79.5,30.9,29.52,North,355,8.0,15.0,17,0.00,,,0.00,meteohub,2013-05-27 17:15:00,
2013-05-27 11:17:00,79.3,26.1,29.51,North,350,6.0,13.0,14,0.00,,,0.00,meteohub,2013-05-27 17:17:00,
2013-05-27 11:18:00,79.5,33.6,29.52,NNW,348,6.0,13.0,19,0.00,,,0.00,meteohub,2013-05-27 17:18:00,
2013-05-27 11:19:00,79.5,33.6,29.52,NNW,337,7.0,13.0,19,0.00,,,0.00,meteohub,2013-05-27 17:19:00,
2013-05-27 11:20:00,79.5,32.4,29.52,North,0,7.0,13.0,18,0.00,,,0.00,meteohub,2013-05-27 17:20:00,
2013-05-27 11:23:00,79.9,31.1,29.52,NNW,340,8.0,14.0,17,0.00,,,0.00,meteohub,2013-05-27 17:23:00,
2013-05-27 11:25:00,79.9,29.7,29.52,NW,324,2.0,14.0,16,0.00,,,0.00,meteohub,2013-05-27 17:25:00,
2013-05-27 11:26:00,79.9,31.1,29.51,NW,323,1.0,14.0,17,0.00,,,0.00,meteohub,2013-05-27 17:26:00,
2013-05-27 11:30:00,80.1,28.2,29.51,WNW,298,11.0,14.0,15,0.00,,,0.00,meteohub,2013-05-27 17:30:00,
2013-05-27 11:31:00,80.1,29.8,29.51,NNW,342,4.0,14.0,16,0.00,,,0.00,meteohub,2013-05-27 17:31:00,
2013-05-27 11:32:00,80.1,26.6,29.51,North,5,4.0,13.0,14,0.00,,,0.00,meteohub,2013-05-27 17:32:00,
2013-05-27 11:36:00,80.1,26.6,29.51,NW,326,6.0,13.0,14,0.00,,,0.00,meteohub,2013-05-27 17:36:00,
2013-05-27 11:37:00,80.1,26.6,29.51,NNW,339,3.0,13.0,14,0.00,,,0.00,meteohub,2013-05-27 17:37:00,
2013-05-27 11:39:00,80.1,31.3,29.51,North,355,7.0,13.0,17,0.00,,,0.00,meteohub,2013-05-27 17:39:00,
2013-05-27 11:40:00,80.1,31.3,29.51,North,350,8.0,13.0,17,0.00,,,0.00,meteohub,2013-05-27 17:40:00,
2013-05-27 11:41:00,80.1,28.2,29.51,NNE,22,6.0,13.0,15,0.00,,,0.00,meteohub,2013-05-27 17:41:00,
2013-05-27 11:42:00,79.9,28.0,29.51,NNE,17,9.0,13.0,15,0.00,,,0.00,meteohub,2013-05-27 17:42:00,
2013-05-27 11:43:00,79.9,24.6,29.51,North,355,9.0,13.0,13,0.00,,,0.00,meteohub,2013-05-27 17:43:00,
2013-05-27 11:44:00,79.7,24.4,29.51,NNW,337,3.0,13.0,13,0.00,,,0.00,meteohub,2013-05-27 17:44:00,
2013-05-27 11:47:00,79.5,29.5,29.51,NNE,22,17.0,17.0,16,0.00,,,0.00,meteohub,2013-05-27 17:47:00,
2013-05-27 11:49:00,79.5,29.5,29.50,North,5,12.0,12.0,16,0.00,,,0.00,meteohub,2013-05-27 17:49:00,
2013-05-27 11:51:00,79.5,26.1,29.51,North,355,10.0,12.0,14,0.00,,,0.00,meteohub,2013-05-27 17:51:00,
2013-05-27 11:52:00,79.5,26.1,29.50,NNW,346,8.0,19.0,14,0.00,,,0.00,meteohub,2013-05-27 17:52:00,
2013-05-27 11:53:00,79.3,26.1,29.50,North,355,9.0,19.0,14,0.00,,,0.00,meteohub,2013-05-27 17:53:00,
2013-05-27 11:57:00,78.8,27.3,29.50,NNE,13,14.0,22.0,15,0.00,,,0.00,meteohub,2013-05-27 17:57:00,
2013-05-27 11:58:00,78.6,27.1,29.50,NE,56,13.0,22.0,15,0.00,,,0.00,meteohub,2013-05-27 17:58:00,
2013-05-27 11:59:00,78.6,27.1,29.50,NNE,19,10.0,22.0,15,0.00,,,0.00,meteohub,2013-05-27 17:59:00,
2013-05-27 12:01:00,78.3,26.8,29.50,NE,55,13.0,22.0,15,0.00,,,0.00,meteohub,2013-05-27 18:01:00,
2013-05-27 12:02:00,78.1,26.6,29.50,NNE,30,12.0,22.0,15,0.00,,,0.00,meteohub,2013-05-27 18:02:00,
2013-05-27 12:04:00,77.7,30.9,29.50,North,9,5.0,22.0,18,0.00,,,0.00,meteohub,2013-05-27 18:04:00,
2013-05-27 12:05:00,77.7,32.2,29.50,NNE,12,5.0,22.0,19,0.00,,,0.00,meteohub,2013-05-27 18:05:00,
2013-05-27 12:07:00,77.9,32.4,29.50,NNE,13,11.0,19.0,19,0.00,,,0.00,meteohub,2013-05-27 18:07:00,
2013-05-27 12:08:00,77.9,28.0,29.50,NNE,16,8.0,19.0,16,0.00,,,0.00,meteohub,2013-05-27 18:08:00,
2013-05-27 12:09:00,78.1,29.7,29.50,North,0,6.0,19.0,17,0.00,,,0.00,meteohub,2013-05-27 18:09:00,
2013-05-27 12:10:00,78.1,29.7,29.50,North,355,8.0,19.0,17,0.00,,,0.00,meteohub,2013-05-27 18:10:00,
2013-05-27 12:11:00,78.1,29.7,29.50,NNE,17,10.0,19.0,17,0.00,,,0.00,meteohub,2013-05-27 18:11:00,
2013-05-27 12:13:00,78.4,32.7,29.50,NNE,28,12.0,17.0,19,0.00,,,0.00,meteohub,2013-05-27 18:13:00,
2013-05-27 12:14:00,78.4,27.0,29.50,NNE,22,10.0,17.0,15,0.00,,,0.00,meteohub,2013-05-27 18:14:00,
2013-05-27 12:15:00,78.6,31.6,29.50,NNE,13,10.0,17.0,18,0.00,,,0.00,meteohub,2013-05-27 18:15:00,
2013-05-27 12:16:00,78.8,31.6,29.50,North,11,7.0,17.0,18,0.00,,,0.00,meteohub,2013-05-27 18:16:00,
2013-05-27 12:17:00,79.0,34.5,29.50,North,0,11.0,17.0,20,0.00,,,0.00,meteohub,2013-05-27 18:17:00,
2013-05-27 12:19:00,79.3,27.7,29.50,NE,35,9.0,16.0,15,0.00,,,0.00,meteohub,2013-05-27 18:19:00,
2013-05-27 12:20:00,79.3,30.7,29.49,NNE,20,13.0,16.0,17,0.00,,,0.00,meteohub,2013-05-27 18:20:00,
2013-05-27 12:22:00,79.5,32.4,29.49,NE,55,7.0,16.0,18,0.00,,,0.00,meteohub,2013-05-27 18:22:00,
2013-05-27 12:23:00,79.9,34.0,29.49,NE,51,10.0,16.0,19,0.00,,,0.00,meteohub,2013-05-27 18:23:00,
2013-05-27 12:26:00,80.2,32.9,29.49,NNE,24,11.0,16.0,18,0.00,,,0.00,meteohub,2013-05-27 18:26:00,
2013-05-27 12:27:00,80.2,32.9,29.49,NNE,29,12.0,17.0,18,0.00,,,0.00,meteohub,2013-05-27 18:27:00,
2013-05-27 12:28:00,80.4,33.1,29.49,ENE,64,6.0,17.0,18,0.00,,,0.00,meteohub,2013-05-27 18:28:00,
2013-05-27 12:29:00,80.6,31.8,29.49,NNE,22,8.0,17.0,17,0.00,,,0.00,meteohub,2013-05-27 18:29:00,
2013-05-27 12:31:00,81.0,38.5,29.49,NNE,26,8.0,17.0,22,0.00,,,0.00,meteohub,2013-05-27 18:31:00,
2013-05-27 12:32:00,81.1,36.3,29.49,NNE,28,10.0,17.0,20,0.00,,,0.00,meteohub,2013-05-27 18:32:00,
2013-05-27 12:33:00,81.3,30.9,29.49,NE,42,9.0,17.0,16,0.00,,,0.00,meteohub,2013-05-27 18:33:00,
2013-05-27 12:37:00,81.5,32.5,29.49,NNE,21,7.0,17.0,17,0.00,,,0.00,meteohub,2013-05-27 18:37:00,
2013-05-27 12:38:00,81.5,27.7,29.49,NE,36,7.0,17.0,14,0.00,,,0.00,meteohub,2013-05-27 18:38:00,
2013-05-27 12:40:00,81.3,29.3,29.49,NNE,23,5.0,17.0,15,0.00,,,0.00,meteohub,2013-05-27 18:40:00,
2013-05-27 12:42:00,81.3,33.8,29.49,NNE,16,6.0,15.0,18,0.00,,,0.00,meteohub,2013-05-27 18:42:00,
2013-05-27 12:43:00,81.3,32.4,29.48,NNE,30,2.0,15.0,17,0.00,,,0.00,meteohub,2013-05-27 18:43:00,
2013-05-27 12:45:00,81.1,30.7,29.48,NNE,30,1.0,15.0,16,0.00,,,0.00,meteohub,2013-05-27 18:45:00,
2013-05-27 12:46:00,81.1,32.2,29.48,North,5,4.0,15.0,17,0.00,,,0.00,meteohub,2013-05-27 18:46:00,
2013-05-27 12:47:00,81.1,29.1,29.49,NNE,22,6.0,15.0,15,0.00,,,0.00,meteohub,2013-05-27 18:47:00,
2013-05-27 12:48:00,81.0,30.6,29.49,NNE,33,8.0,15.0,16,0.00,,,0.00,meteohub,2013-05-27 18:48:00,
2013-05-27 12:50:00,80.8,36.0,29.49,NNE,22,6.0,15.0,20,0.00,,,0.00,meteohub,2013-05-27 18:50:00,
2013-05-27 12:51:00,80.8,33.3,29.49,NE,44,2.0,15.0,18,0.00,,,0.00,meteohub,2013-05-27 18:51:00,
2013-05-27 12:52:00,80.8,31.8,29.48,NE,36,5.0,11.0,17,0.00,,,0.00,meteohub,2013-05-27 18:52:00,
2013-05-27 12:55:00,80.8,31.8,29.49,NNE,22,5.0,11.0,17,0.00,,,0.00,meteohub,2013-05-27 18:55:00,
2013-05-27 12:56:00,80.6,30.2,29.49,NE,34,7.0,11.0,16,0.00,,,0.00,meteohub,2013-05-27 18:56:00,
2013-05-27 13:01:00,80.2,31.5,29.48,NE,36,4.0,11.0,17,0.00,,,0.00,meteohub,2013-05-27 19:01:00,
2013-05-27 13:02:00,80.2,31.5,29.48,NNE,26,3.0,11.0,17,0.00,,,0.00,meteohub,2013-05-27 19:02:00,
2013-05-27 13:03:00,80.2,32.9,29.48,NE,53,7.0,11.0,18,0.00,,,0.00,meteohub,2013-05-27 19:03:00,
2013-05-27 13:06:00,80.2,31.5,29.48,NE,55,5.0,11.0,17,0.00,,,0.00,meteohub,2013-05-27 19:06:00,
2013-05-27 13:07:00,80.1,31.3,29.48,NE,46,2.0,11.0,17,0.00,,,0.00,meteohub,2013-05-27 19:07:00,
2013-05-27 13:09:00,80.1,36.7,29.48,NNE,15,6.0,11.0,21,0.00,,,0.00,meteohub,2013-05-27 19:09:00,
2013-05-27 13:10:00,80.1,38.8,29.48,NNE,32,6.0,11.0,23,0.00,,,0.00,meteohub,2013-05-27 19:10:00,
2013-05-27 13:13:00,79.5,30.9,29.48,NNE,28,7.0,11.0,17,0.00,,,0.00,meteohub,2013-05-27 19:13:00,
2013-05-27 13:15:00,79.3,29.3,29.48,NNE,30,4.0,11.0,16,0.00,,,0.00,meteohub,2013-05-27 19:15:00,
2013-05-27 13:16:00,79.3,30.7,29.48,NNE,26,3.0,11.0,17,0.00,,,0.00,meteohub,2013-05-27 19:16:00,
2013-05-27 13:19:00,79.3,30.7,29.48,NE,49,0.0,11.0,17,0.00,,,0.00,meteohub,2013-05-27 19:19:00,
2013-05-27 13:21:00,79.3,30.7,29.48,NE,49,4.0,11.0,17,0.00,,,0.00,meteohub,2013-05-27 19:21:00,
2013-05-27 13:22:00,79.3,30.7,29.48,NNE,33,1.0,11.0,17,0.00,,,0.00,meteohub,2013-05-27 19:22:00,
2013-05-27 13:27:00,79.3,30.7,29.48,ENE,63,2.0,11.0,17,0.00,,,0.00,meteohub,2013-05-27 19:27:00,
2013-05-27 13:28:00,79.3,30.7,29.48,ESE,102,2.0,11.0,17,0.00,,,0.00,meteohub,2013-05-27 19:28:00,
2013-05-27 13:29:00,79.3,30.7,29.48,ESE,121,6.0,11.0,17,0.00,,,0.00,meteohub,2013-05-27 19:29:00,
2013-05-27 13:30:00,79.3,30.7,29.48,ESE,119,6.0,11.0,17,0.00,,,0.00,meteohub,2013-05-27 19:30:00,
2013-05-27 13:43:00,76.6,25.5,29.48,ESE,113,1.0,11.0,15,0.00,,,0.00,meteohub,2013-05-27 19:43:00,
2013-05-27 13:46:00,76.6,30.0,29.47,ESE,113,4.0,11.0,18,0.00,,,0.00,meteohub,2013-05-27 19:46:00,
2013-05-27 13:47:00,76.6,30.0,29.48,ESE,117,7.0,9.0,18,0.00,,,0.00,meteohub,2013-05-27 19:47:00,
2013-05-27 13:49:00,76.6,27.1,29.48,SE,127,6.0,9.0,16,0.00,,,0.00,meteohub,2013-05-27 19:49:00,
2013-05-27 13:50:00,76.6,28.6,29.48,ESE,118,6.0,9.0,17,0.00,,,0.00,meteohub,2013-05-27 19:50:00,
2013-05-27 13:51:00,76.6,30.0,29.48,ESE,120,4.0,9.0,18,0.00,,,0.00,meteohub,2013-05-27 19:51:00,
2013-05-27 13:53:00,76.6,31.3,29.47,SE,128,5.0,9.0,19,0.00,,,0.00,meteohub,2013-05-27 19:53:00,
2013-05-27 13:54:00,76.6,28.6,29.47,South,190,8.0,9.0,17,0.00,,,0.00,meteohub,2013-05-27 19:54:00,
2013-05-27 13:55:00,76.6,31.3,29.47,SW,222,8.0,9.0,19,0.00,,,0.00,meteohub,2013-05-27 19:55:00,
2013-05-27 13:58:00,77.2,30.4,29.47,SSW,201,5.0,13.0,18,0.00,,,0.00,meteohub,2013-05-27 19:58:00,
2013-05-27 13:59:00,77.4,31.8,29.47,SSW,207,6.0,13.0,19,0.00,,,0.00,meteohub,2013-05-27 19:59:00,
2013-05-27 14:00:00,77.5,29.3,29.47,SW,223,4.0,13.0,17,0.00,,,0.00,meteohub,2013-05-27 20:00:00,
2013-05-27 14:01:00,77.7,29.5,29.47,SW,214,4.0,13.0,17,0.00,,,0.00,meteohub,2013-05-27 20:01:00,
2013-05-27 14:02:00,77.9,29.7,29.47,WSW,239,2.0,15.0,17,0.00,,,0.00,meteohub,2013-05-27 20:02:00,
2013-05-27 14:04:00,78.3,29.8,29.47,SW,224,10.0,15.0,17,0.00,,,0.00,meteohub,2013-05-27 20:04:00,
2013-05-27 14:05:00,78.3,29.8,29.47,SSW,209,3.0,15.0,17,0.00,,,0.00,meteohub,2013-05-27 20:05:00,
2013-05-27 14:07:00,78.4,31.5,29.47,East,92,7.0,15.0,18,0.00,,,0.00,meteohub,2013-05-27 20:07:00,
2013-05-27 14:09:00,78.3,28.4,29.47,ESE,118,2.0,15.0,16,0.00,,,0.00,meteohub,2013-05-27 20:09:00,
2013-05-27 14:10:00,78.1,26.6,29.47,NNE,15,1.0,15.0,15,0.00,,,0.00,meteohub,2013-05-27 20:10:00,
2013-05-27 14:11:00,78.1,26.6,29.47,NNE,15,1.0,15.0,15,0.00,,,0.00,meteohub,2013-05-27 20:11:00,
2013-05-27 14:12:00,78.3,34.0,29.47,NNE,15,0.0,18.0,20,0.00,,,0.00,meteohub,2013-05-27 20:12:00,
2013-05-27 14:14:00,78.3,32.5,29.47,NNW,348,2.0,18.0,19,0.00,,,0.00,meteohub,2013-05-27 20:14:00,
2013-05-27 14:16:00,78.3,32.5,29.47,WNW,284,3.0,18.0,19,0.00,,,0.00,meteohub,2013-05-27 20:16:00,
2013-05-27 14:17:00,78.4,28.6,29.47,WSW,246,3.0,18.0,16,0.00,,,0.00,meteohub,2013-05-27 20:17:00,
2013-05-27 14:19:00,78.4,31.5,29.47,WNW,292,5.0,18.0,18,0.00,,,0.00,meteohub,2013-05-27 20:19:00,
2013-05-27 14:22:00,78.4,27.0,29.47,WNW,292,2.0,18.0,15,0.00,,,0.00,meteohub,2013-05-27 20:22:00,
2013-05-27 14:23:00,78.3,25.2,29.47,West,265,0.0,18.0,14,0.00,,,0.00,meteohub,2013-05-27 20:23:00,
2013-05-27 14:24:00,78.3,25.2,29.46,WNW,283,0.0,18.0,14,0.00,,,0.00,meteohub,2013-05-27 20:24:00,
2013-05-27 14:25:00,78.3,26.8,29.46,West,281,0.0,18.0,15,0.00,,,0.00,meteohub,2013-05-27 20:25:00,
2013-05-27 14:26:00,78.3,26.8,29.46,West,281,0.0,18.0,15,0.00,,,0.00,meteohub,2013-05-27 20:26:00,
2013-05-27 14:27:00,78.3,29.8,29.46,WSW,242,4.0,11.0,17,0.00,,,0.00,meteohub,2013-05-27 20:27:00,
2013-05-27 14:29:00,78.3,23.4,29.46,WSW,249,3.0,11.0,13,0.00,,,0.00,meteohub,2013-05-27 20:29:00,
2013-05-27 14:31:00,78.3,29.8,29.46,West,259,3.0,11.0,17,0.00,,,0.00,meteohub,2013-05-27 20:31:00,
2013-05-27 14:32:00,78.3,29.8,29.46,WNW,296,3.0,11.0,17,0.00,,,0.00,meteohub,2013-05-27 20:32:00,
2013-05-27 14:33:00,78.3,26.8,29.46,NNW,329,11.0,11.0,15,0.00,,,0.00,meteohub,2013-05-27 20:33:00,
2013-05-27 14:34:00,78.3,28.4,29.46,NW,306,14.0,14.0,16,0.00,,,0.00,meteohub,2013-05-27 20:34:00,
2013-05-27 14:35:00,78.1,26.6,29.46,NNW,327,9.0,11.0,15,0.00,,,0.00,meteohub,2013-05-27 20:35:00,
2013-05-27 14:38:00,77.7,26.4,29.46,NW,321,5.0,24.0,15,0.00,,,0.00,meteohub,2013-05-27 20:38:00,
2013-05-27 14:40:00,77.7,29.5,29.46,NNW,336,2.0,24.0,17,0.00,,,0.00,meteohub,2013-05-27 20:40:00,
2013-05-27 14:41:00,77.5,30.7,29.46,WNW,286,5.0,24.0,18,0.00,,,0.00,meteohub,2013-05-27 20:41:00,
2013-05-27 14:42:00,77.5,26.2,29.46,West,265,4.0,24.0,15,0.00,,,0.00,meteohub,2013-05-27 20:42:00,
2013-05-27 14:46:00,77.5,29.3,29.46,NNW,333,11.0,24.0,17,0.00,,,0.00,meteohub,2013-05-27 20:46:00,
2013-05-27 14:47:00,77.5,27.9,29.46,WNW,288,5.0,24.0,16,0.00,,,0.00,meteohub,2013-05-27 20:47:00,
2013-05-27 14:50:00,78.1,29.7,29.45,NNE,24,2.0,24.0,17,0.00,,,0.00,meteohub,2013-05-27 20:50:00,
2013-05-27 14:52:00,78.3,25.2,29.45,NNW,343,7.0,15.0,14,0.00,,,0.00,meteohub,2013-05-27 20:52:00,
2013-05-27 14:55:00,78.4,27.0,29.45,WNW,303,3.0,15.0,15,0.00,,,0.00,meteohub,2013-05-27 20:55:00,
2013-05-27 14:59:00,78.4,30.0,29.45,NNW,340,8.0,15.0,17,0.00,,,0.00,meteohub,2013-05-27 20:59:00,
2013-05-27 15:00:00,78.4,27.0,29.44,NNW,344,4.0,15.0,15,0.00,,,0.00,meteohub,2013-05-27 21:00:00,
2013-05-27 15:02:00,78.3,26.8,29.45,West,270,4.0,15.0,15,0.00,,,0.00,meteohub,2013-05-27 21:02:00,
2013-05-27 15:05:00,78.1,25.0,29.45,WSW,255,0.0,15.0,14,0.00,,,0.00,meteohub,2013-05-27 21:05:00,
2013-05-27 15:06:00,78.1,25.0,29.45,WSW,255,1.0,15.0,14,0.00,,,0.00,meteohub,2013-05-27 21:06:00,
2013-05-27 15:07:00,78.1,28.2,29.45,WSW,255,3.0,13.0,16,0.00,,,0.00,meteohub,2013-05-27 21:07:00,
2013-05-27 15:08:00,78.3,26.8,29.45,WSW,255,0.0,13.0,15,0.00,,,0.00,meteohub,2013-05-27 21:08:00,
2013-05-27 15:10:00,78.3,29.8,29.45,WSW,255,1.0,13.0,17,0.00,,,0.00,meteohub,2013-05-27 21:10:00,
2013-05-27 15:12:00,78.3,28.4,29.44,WSW,238,1.0,12.0,16,0.00,,,0.00,meteohub,2013-05-27 21:12:00,
2013-05-27 15:13:00,78.3,26.8,29.44,WSW,246,0.0,12.0,15,0.00,,,0.00,meteohub,2013-05-27 21:13:00,
2013-05-27 15:16:00,78.3,34.0,29.45,WSW,246,0.0,12.0,20,0.00,,,0.00,meteohub,2013-05-27 21:16:00,
2013-05-27 15:18:00,78.3,29.8,29.45,WSW,246,0.0,8.0,17,0.00,,,0.00,meteohub,2013-05-27 21:18:00,
2013-05-27 15:19:00,78.4,30.0,29.45,WSW,246,0.0,8.0,17,0.00,,,0.00,meteohub,2013-05-27 21:19:00,
2013-05-27 15:22:00,78.4,27.0,29.44,WSW,246,0.0,4.0,15,0.00,,,0.00,meteohub,2013-05-27 21:22:00,
2013-05-27 15:24:00,78.4,25.3,29.44,WSW,246,0.0,4.0,14,0.00,,,0.00,meteohub,2013-05-27 21:24:00,
2013-05-27 15:27:00,78.4,30.0,29.44,WSW,246,0.0,4.0,17,0.00,,,0.00,meteohub,2013-05-27 21:27:00,
2013-05-27 15:28:00,78.4,27.0,29.44,WSW,246,0.0,4.0,15,0.00,,,0.00,meteohub,2013-05-27 21:28:00,
2013-05-27 15:29:00,78.6,28.8,29.44,East,86,4.0,4.0,16,0.00,,,0.00,meteohub,2013-05-27 21:29:00,
2013-05-27 15:31:00,78.4,27.0,29.44,NNE,23,1.0,4.0,15,0.00,,,0.00,meteohub,2013-05-27 21:31:00,
2013-05-27 15:33:00,78.6,32.9,29.44,NNE,23,0.0,12.0,19,0.00,,,0.00,meteohub,2013-05-27 21:33:00,
2013-05-27 15:34:00,78.6,31.6,29.44,NNE,23,1.0,12.0,18,0.00,,,0.00,meteohub,2013-05-27 21:34:00,
2013-05-27 15:36:00,78.6,31.6,29.44,WNW,290,3.0,12.0,18,0.00,,,0.00,meteohub,2013-05-27 21:36:00,
2013-05-27 15:37:00,78.6,31.6,29.44,WNW,298,8.0,12.0,18,0.00,,,0.00,meteohub,2013-05-27 21:37:00,
2013-05-27 15:40:00,78.6,34.2,29.44,NW,325,2.0,12.0,20,0.00,,,0.00,meteohub,2013-05-27 21:40:00,
2013-05-27 15:42:00,78.4,27.0,29.44,NNW,338,2.0,12.0,15,0.00,,,0.00,meteohub,2013-05-27 21:42:00,
2013-05-27 15:43:00,78.4,27.0,29.44,NNE,19,2.0,12.0,15,0.00,,,0.00,meteohub,2013-05-27 21:43:00,
2013-05-27 15:45:00,78.6,31.6,29.44,NNE,19,0.0,12.0,18,0.00,,,0.00,meteohub,2013-05-27 21:45:00,
2013-05-27 15:46:00,78.6,31.6,29.44,NNE,19,0.0,12.0,18,0.00,,,0.00,meteohub,2013-05-27 21:46:00,
2013-05-27 15:50:00,78.8,31.6,29.44,NNE,19,0.0,8.0,18,0.00,,,0.00,meteohub,2013-05-27 21:50:00,
2013-05-27 15:51:00,78.8,36.7,29.44,NNW,328,2.0,8.0,22,0.00,,,0.00,meteohub,2013-05-27 21:51:00,
2013-05-27 15:52:00,78.8,39.0,29.44,NW,325,3.0,8.0,24,0.00,,,0.00,meteohub,2013-05-27 21:52:00,
2013-05-27 15:54:00,79.0,37.9,29.44,NW,322,0.0,8.0,23,0.00,,,0.00,meteohub,2013-05-27 21:54:00,
2013-05-27 15:55:00,79.0,36.9,29.44,NW,322,0.0,8.0,22,0.00,,,0.00,meteohub,2013-05-27 21:55:00,
2013-05-27 15:58:00,79.0,27.3,29.43,NW,322,0.0,5.0,15,0.00,,,0.00,meteohub,2013-05-27 21:58:00,
2013-05-27 16:00:00,79.0,30.4,29.43,NW,322,0.0,5.0,17,0.00,,,0.00,meteohub,2013-05-27 22:00:00,
2013-05-27 16:02:00,79.0,33.3,29.43,NW,322,0.0,4.0,19,0.00,,,0.00,meteohub,2013-05-27 22:02:00,
2013-05-27 16:03:00,79.2,39.2,29.43,NW,322,0.0,4.0,24,0.00,,,0.00,meteohub,2013-05-27 22:03:00,
2013-05-27 16:04:00,79.2,39.2,29.43,NW,322,0.0,4.0,24,0.00,,,0.00,meteohub,2013-05-27 22:04:00,
2013-05-27 16:06:00,79.2,37.0,29.43,NW,322,0.0,4.0,22,0.00,,,0.00,meteohub,2013-05-27 22:06:00,
2013-05-27 16:08:00,79.0,35.8,29.43,NW,322,0.0,4.0,21,0.00,,,0.00,meteohub,2013-05-27 22:08:00,
2013-05-27 16:09:00,79.0,34.5,29.43,NW,322,0.0,4.0,20,0.00,,,0.00,meteohub,2013-05-27 22:09:00,
2013-05-27 16:11:00,79.0,28.9,29.43,NW,322,0.0,4.0,16,0.00,,,0.00,meteohub,2013-05-27 22:11:00,
2013-05-27 16:12:00,79.0,28.9,29.43,NW,322,0.0,2.0,16,0.00,,,0.00,meteohub,2013-05-27 22:12:00,
2013-05-27 16:13:00,79.0,30.4,29.43,NW,322,0.0,2.0,17,0.00,,,0.00,meteohub,2013-05-27 22:13:00,
2013-05-27 16:14:00,79.0,34.5,29.43,NW,322,0.0,2.0,20,0.00,,,0.00,meteohub,2013-05-27 22:14:00,
2013-05-27 16:17:00,79.0,41.2,29.43,NW,322,0.0,1.0,26,0.00,,,0.00,meteohub,2013-05-27 22:17:00,
2013-05-27 16:18:00,78.8,39.0,29.43,NW,322,0.0,1.0,24,0.00,,,0.00,meteohub,2013-05-27 22:18:00,
2013-05-27 16:19:00,78.8,39.0,29.43,NW,322,0.0,1.0,24,0.00,,,0.00,meteohub,2013-05-27 22:19:00,
2013-05-27 16:22:00,78.8,43.0,29.43,NW,322,2.0,2.0,28,0.00,,,0.00,meteohub,2013-05-27 22:22:00,
2013-05-27 16:23:00,78.6,41.9,29.43,NW,322,1.0,1.0,27,0.00,,,0.00,meteohub,2013-05-27 22:23:00,
2013-05-27 16:24:00,78.6,40.8,29.43,NE,40,4.0,4.0,26,0.00,,,0.00,meteohub,2013-05-27 22:24:00,
2013-05-27 16:25:00,78.6,40.8,29.43,NE,40,3.0,3.0,26,0.00,,,0.00,meteohub,2013-05-27 22:25:00,
2013-05-27 16:27:00,78.4,39.7,29.43,NE,40,0.0,5.0,25,0.00,,,0.00,meteohub,2013-05-27 22:27:00,
2013-05-27 16:29:00,78.3,35.1,29.43,NE,40,2.0,5.0,21,0.00,,,0.00,meteohub,2013-05-27 22:29:00,
2013-05-27 16:30:00,78.3,34.0,29.43,NE,42,1.0,5.0,20,0.00,,,0.00,meteohub,2013-05-27 22:30:00,
2013-05-27 16:32:00,78.1,29.7,29.43,NE,43,2.0,5.0,17,0.00,,,0.00,meteohub,2013-05-27 22:32:00,
2013-05-27 16:33:00,77.9,33.6,29.43,NE,43,0.0,5.0,20,0.00,,,0.00,meteohub,2013-05-27 22:33:00,
2013-05-27 16:35:00,77.9,36.0,29.43,NE,43,0.0,5.0,22,0.00,,,0.00,meteohub,2013-05-27 22:35:00,
2013-05-27 16:37:00,77.9,37.0,29.43,NE,42,0.0,5.0,23,0.00,,,0.00,meteohub,2013-05-27 22:37:00,
2013-05-27 16:38:00,77.7,40.1,29.43,NE,42,0.0,5.0,26,0.00,,,0.00,meteohub,2013-05-27 22:38:00,
2013-05-27 16:40:00,77.7,30.9,29.43,NE,46,1.0,5.0,18,0.00,,,0.00,meteohub,2013-05-27 22:40:00,
2013-05-27 16:42:00,77.5,33.3,29.43,NE,46,1.0,4.0,20,0.00,,,0.00,meteohub,2013-05-27 22:42:00,
2013-05-27 16:44:00,77.5,33.3,29.43,NE,46,2.0,4.0,20,0.00,,,0.00,meteohub,2013-05-27 22:44:00,
2013-05-27 16:47:00,77.4,34.3,29.43,East,86,4.0,4.0,21,0.00,,,0.00,meteohub,2013-05-27 22:47:00,
2013-05-27 16:48:00,77.2,33.1,29.43,South,173,1.0,4.0,20,0.00,,,0.00,meteohub,2013-05-27 22:48:00,
2013-05-27 16:50:00,77.2,35.4,29.43,South,184,8.0,8.0,22,0.00,,,0.00,meteohub,2013-05-27 22:50:00,
2013-05-27 16:51:00,77.0,31.6,29.43,SSW,207,10.0,10.0,19,0.00,,,0.00,meteohub,2013-05-27 22:51:00,
2013-05-27 16:52:00,76.8,31.5,29.42,SSE,160,2.0,8.0,19,0.00,,,0.00,meteohub,2013-05-27 22:52:00,
2013-05-27 16:55:00,76.5,27.0,29.42,SE,130,6.0,8.0,16,0.00,,,0.00,meteohub,2013-05-27 22:55:00,
2013-05-27 16:56:00,76.3,26.8,29.42,SSW,211,8.0,12.0,16,0.00,,,0.00,meteohub,2013-05-27 22:56:00,
2013-05-27 16:57:00,76.3,25.2,29.43,SSE,154,2.0,12.0,15,0.00,,,0.00,meteohub,2013-05-27 22:57:00,
2013-05-27 16:58:00,76.3,26.8,29.42,SSE,155,1.0,12.0,16,0.00,,,0.00,meteohub,2013-05-27 22:58:00,
2013-05-27 17:00:00,76.3,32.2,29.42,SE,135,0.0,12.0,20,0.00,,,0.00,meteohub,2013-05-27 23:00:00,
2013-05-27 17:01:00,76.1,28.0,29.42,South,179,7.0,12.0,17,0.00,,,0.00,meteohub,2013-05-27 23:01:00,
2013-05-27 17:03:00,76.1,28.0,29.42,ESE,122,5.0,12.0,17,0.00,,,0.00,meteohub,2013-05-27 23:03:00,
2013-05-27 17:06:00,76.1,26.6,29.42,ESE,108,7.0,12.0,16,0.00,,,0.00,meteohub,2013-05-27 23:06:00,
2013-05-27 17:07:00,76.1,29.5,29.42,ESE,103,7.0,12.0,18,0.00,,,0.00,meteohub,2013-05-27 23:07:00,
2013-05-27 17:09:00,76.3,29.7,29.42,ESE,119,5.0,12.0,18,0.00,,,0.00,meteohub,2013-05-27 23:09:00,
2013-05-27 17:11:00,76.3,30.9,29.42,SE,132,2.0,12.0,19,0.00,,,0.00,meteohub,2013-05-27 23:11:00,
2013-05-27 17:12:00,76.3,29.7,29.42,SE,137,5.0,12.0,18,0.00,,,0.00,meteohub,2013-05-27 23:12:00,
2013-05-27 17:14:00,76.3,28.2,29.42,SE,132,6.0,12.0,17,0.00,,,0.00,meteohub,2013-05-27 23:14:00,
2013-05-27 17:15:00,76.3,28.2,29.42,ESE,119,7.0,12.0,17,0.00,,,0.00,meteohub,2013-05-27 23:15:00,
2013-05-27 17:17:00,76.3,28.2,29.42,SE,127,6.0,12.0,17,0.00,,,0.00,meteohub,2013-05-27 23:17:00,
2013-05-27 17:18:00,76.3,26.8,29.42,ESE,119,7.0,12.0,16,0.00,,,0.00,meteohub,2013-05-27 23:18:00,
2013-05-27 17:21:00,76.1,26.6,29.42,ESE,113,7.0,12.0,16,0.00,,,0.00,meteohub,2013-05-27 23:21:00,
2013-05-27 17:22:00,76.1,26.6,29.42,ESE,119,5.0,12.0,16,0.00,,,0.00,meteohub,2013-05-27 23:22:00,
2013-05-27 17:23:00,76.1,25.2,29.42,SE,132,4.0,12.0,15,0.00,,,0.00,meteohub,2013-05-27 23:23:00,
2013-05-27 17:24:00,76.1,26.6,29.42,SE,132,0.0,12.0,16,0.00,,,0.00,meteohub,2013-05-27 23:24:00,
2013-05-27 17:27:00,76.1,25.2,29.42,SE,132,2.0,12.0,15,0.00,,,0.00,meteohub,2013-05-27 23:27:00,
2013-05-27 17:28:00,76.1,25.2,29.42,SE,132,1.0,12.0,15,0.00,,,0.00,meteohub,2013-05-27 23:28:00,
2013-05-27 17:29:00,76.1,25.2,29.42,SE,132,0.0,12.0,15,0.00,,,0.00,meteohub,2013-05-27 23:29:00,
2013-05-27 17:30:00,76.1,25.2,29.42,SE,132,0.0,12.0,15,0.00,,,0.00,meteohub,2013-05-27 23:30:00,
2013-05-27 17:32:00,76.1,26.6,29.42,SE,131,1.0,8.0,16,0.00,,,0.00,meteohub,2013-05-27 23:32:00,
2013-05-27 17:35:00,76.1,29.5,29.42,East,79,1.0,8.0,18,0.00,,,0.00,meteohub,2013-05-27 23:35:00,
2013-05-27 17:37:00,76.1,32.2,29.42,NE,56,3.0,8.0,20,0.00,,,0.00,meteohub,2013-05-27 23:37:00,
2013-05-27 17:39:00,76.3,33.4,29.42,NNE,21,4.0,8.0,21,0.00,,,0.00,meteohub,2013-05-27 23:39:00,
2013-05-27 17:42:00,75.9,33.3,29.42,NNE,30,6.0,8.0,21,0.00,,,0.00,meteohub,2013-05-27 23:42:00,
2013-05-27 17:44:00,75.9,33.3,29.42,NNE,12,5.0,8.0,21,0.00,,,0.00,meteohub,2013-05-27 23:44:00,
2013-05-27 17:46:00,75.7,34.2,29.42,North,10,6.0,8.0,22,0.00,,,0.00,meteohub,2013-05-27 23:46:00,
2013-05-27 17:47:00,75.7,33.1,29.42,North,9,6.0,11.0,21,0.00,,,0.00,meteohub,2013-05-27 23:47:00,
2013-05-27 17:49:00,75.6,30.4,29.42,NNE,32,5.0,11.0,19,0.00,,,0.00,meteohub,2013-05-27 23:49:00,
2013-05-27 17:51:00,75.6,34.0,29.42,NNE,26,4.0,11.0,22,0.00,,,0.00,meteohub,2013-05-27 23:51:00,
2013-05-27 17:54:00,75.4,31.5,29.42,NNE,27,10.0,11.0,20,0.00,,,0.00,meteohub,2013-05-27 23:54:00,
2013-05-27 17:55:00,75.4,28.9,29.42,NNE,27,11.0,11.0,18,0.00,,,0.00,meteohub,2013-05-27 23:55:00,
2013-05-27 17:56:00,75.4,30.2,29.42,ENE,58,3.0,12.0,19,0.00,,,0.00,meteohub,2013-05-27 23:56:00,
2013-05-27 17:58:00,75.4,31.5,29.42,NE,40,5.0,12.0,20,0.00,,,0.00,meteohub,2013-05-27 23:58:00,
2013-05-27 18:00:00,75.2,30.0,29.42,NNE,14,8.0,12.0,19,0.00,,,0.00,meteohub,2013-05-28 00:00:00,
2013-05-27 18:02:00,75.0,28.6,29.42,NNE,21,10.0,15.0,18,0.00,,,0.00,meteohub,2013-05-28 00:02:00,
2013-05-27 18:03:00,75.0,28.6,29.42,North,9,6.0,15.0,18,0.00,,,0.00,meteohub,2013-05-28 00:03:00,
2013-05-27 18:05:00,75.0,30.0,29.43,NNE,13,4.0,15.0,19,0.00,,,0.00,meteohub,2013-05-28 00:05:00,
2013-05-27 18:08:00,74.8,31.1,29.43,NE,45,4.0,15.0,20,0.00,,,0.00,meteohub,2013-05-28 00:08:00,
2013-05-27 18:09:00,74.8,28.4,29.42,NE,45,0.0,15.0,18,0.00,,,0.00,meteohub,2013-05-28 00:09:00,
2013-05-27 18:11:00,74.8,27.1,29.43,NE,45,0.0,15.0,17,0.00,,,0.00,meteohub,2013-05-28 00:11:00,
2013-05-27 18:14:00,74.8,29.8,29.43,NNW,340,0.0,11.0,19,0.00,,,0.00,meteohub,2013-05-28 00:14:00,
2013-05-27 18:15:00,74.8,31.1,29.43,NNW,340,0.0,11.0,20,0.00,,,0.00,meteohub,2013-05-28 00:15:00,
2013-05-27 18:16:00,74.8,31.1,29.43,NNE,27,2.0,11.0,20,0.00,,,0.00,meteohub,2013-05-28 00:16:00,
2013-05-27 18:17:00,74.8,33.4,29.43,East,88,3.0,11.0,22,0.00,,,0.00,meteohub,2013-05-28 00:17:00,
2013-05-27 18:21:00,74.7,32.2,29.43,North,11,4.0,9.0,21,0.00,,,0.00,meteohub,2013-05-28 00:21:00,
2013-05-27 18:22:00,74.7,32.2,29.43,North,11,4.0,9.0,21,0.00,,,0.00,meteohub,2013-05-28 00:22:00,
2013-05-27 18:25:00,74.7,34.3,29.43,NNE,13,3.0,8.0,23,0.00,,,0.00,meteohub,2013-05-28 00:25:00,
2013-05-27 18:27:00,74.5,30.7,29.43,North,0,4.0,6.0,20,0.00,,,0.00,meteohub,2013-05-28 00:27:00,
2013-05-27 18:29:00,74.5,33.1,29.43,North,351,2.0,6.0,22,0.00,,,0.00,meteohub,2013-05-28 00:29:00,
2013-05-27 18:31:00,74.5,33.1,29.43,North,0,3.0,6.0,22,0.00,,,0.00,meteohub,2013-05-28 00:31:00,
2013-05-27 18:33:00,74.3,33.1,29.43,NNE,13,5.0,6.0,22,0.00,,,0.00,meteohub,2013-05-28 00:33:00,
2013-05-27 18:34:00,74.1,32.9,29.43,NNE,27,2.0,6.0,22,0.00,,,0.00,meteohub,2013-05-28 00:34:00,
2013-05-27 18:36:00,74.1,32.9,29.43,NNE,14,4.0,6.0,22,0.00,,,0.00,meteohub,2013-05-28 00:36:00,
2013-05-27 18:38:00,74.1,30.6,29.43,North,9,8.0,8.0,20,0.00,,,0.00,meteohub,2013-05-28 00:38:00,
2013-05-27 18:39:00,74.1,31.6,29.43,NNE,14,9.0,9.0,21,0.00,,,0.00,meteohub,2013-05-28 00:39:00,
2013-05-27 18:40:00,74.1,30.6,29.43,North,0,4.0,6.0,20,0.00,,,0.00,meteohub,2013-05-28 00:40:00,
2013-05-27 18:42:00,73.9,30.4,29.43,NNE,14,13.0,13.0,20,0.00,,,0.00,meteohub,2013-05-28 00:42:00,
2013-05-27 18:44:00,73.9,30.4,29.44,NE,40,8.0,11.0,20,0.00,,,0.00,meteohub,2013-05-28 00:44:00,
2013-05-27 18:45:00,73.9,30.4,29.44,NNE,32,11.0,11.0,20,0.00,,,0.00,meteohub,2013-05-28 00:45:00,
2013-05-27 18:46:00,73.9,30.4,29.44,NE,35,8.0,11.0,20,0.00,,,0.00,meteohub,2013-05-28 00:46:00,
2013-05-27 18:47:00,73.9,30.4,29.44,NNE,21,10.0,14.0,20,0.00,,,0.00,meteohub,2013-05-28 00:47:00,
2013-05-27 18:50:00,73.9,30.4,29.44,NNE,12,9.0,14.0,20,0.00,,,0.00,meteohub,2013-05-28 00:50:00,
2013-05-27 18:51:00,73.9,29.1,29.44,North,0,7.0,14.0,19,0.00,,,0.00,meteohub,2013-05-28 00:51:00,
2013-05-27 18:52:00,73.9,30.4,29.44,NNE,19,7.0,14.0,20,0.00,,,0.00,meteohub,2013-05-28 00:52:00,
2013-05-27 18:53:00,73.9,30.4,29.44,NNE,25,6.0,14.0,20,0.00,,,0.00,meteohub,2013-05-28 00:53:00,
2013-05-27 18:56:00,73.9,30.4,29.44,NNE,13,4.0,14.0,20,0.00,,,0.00,meteohub,2013-05-28 00:56:00,
2013-05-27 18:57:00,73.9,30.4,29.45,NNE,13,7.0,14.0,20,0.00,,,0.00,meteohub,2013-05-28 00:57:00,
2013-05-27 18:58:00,73.9,29.1,29.44,NNE,12,4.0,14.0,19,0.00,,,0.00,meteohub,2013-05-28 00:58:00,
2013-05-27 18:59:00,73.9,29.1,29.44,NNE,13,4.0,14.0,19,0.00,,,0.00,meteohub,2013-05-28 00:59:00,
2013-05-27 19:00:00,73.9,29.1,29.45,NNE,13,4.0,14.0,19,0.00,,,0.00,meteohub,2013-05-28 01:00:00,
2013-05-27 19:03:00,73.9,30.4,29.45,NNE,16,6.0,13.0,20,0.00,,,0.00,meteohub,2013-05-28 01:03:00,
2013-05-27 19:05:00,73.9,31.5,29.45,NNE,26,2.0,13.0,21,0.00,,,0.00,meteohub,2013-05-28 01:05:00,
2013-05-27 19:07:00,73.9,31.5,29.45,NNE,15,6.0,10.0,21,0.00,,,0.00,meteohub,2013-05-28 01:07:00,
2013-05-27 19:08:00,73.9,29.1,29.45,NNE,13,5.0,10.0,19,0.00,,,0.00,meteohub,2013-05-28 01:08:00,
2013-05-27 19:10:00,73.9,30.4,29.45,NNE,15,4.0,10.0,20,0.00,,,0.00,meteohub,2013-05-28 01:10:00,
2013-05-27 19:14:00,73.8,30.2,29.45,NNE,14,6.0,10.0,20,0.00,,,0.00,meteohub,2013-05-28 01:14:00,
2013-05-27 19:16:00,73.8,31.5,29.45,NNE,25,5.0,10.0,21,0.00,,,0.00,meteohub,2013-05-28 01:16:00,
2013-05-27 19:17:00,73.8,32.5,29.45,NNE,16,6.0,9.0,22,0.00,,,0.00,meteohub,2013-05-28 01:17:00,
2013-05-27 19:21:00,73.6,33.4,29.45,NNE,19,3.0,9.0,23,0.00,,,0.00,meteohub,2013-05-28 01:21:00,
2013-05-27 19:22:00,73.6,33.4,29.45,NNE,19,2.0,8.0,23,0.00,,,0.00,meteohub,2013-05-28 01:22:00,
2013-05-27 19:25:00,73.6,34.5,29.45,NNE,19,0.0,8.0,24,0.00,,,0.00,meteohub,2013-05-28 01:25:00,
2013-05-27 19:27:00,73.4,34.3,29.45,NNE,19,2.0,8.0,24,0.00,,,0.00,meteohub,2013-05-28 01:27:00,
2013-05-27 19:28:00,73.2,33.3,29.45,NNE,19,1.0,8.0,23,0.00,,,0.00,meteohub,2013-05-28 01:28:00,
2013-05-27 19:32:00,73.0,35.1,29.45,NNE,19,1.0,8.0,25,0.00,,,0.00,meteohub,2013-05-28 01:32:00,
2013-05-27 19:33:00,72.9,34.0,29.45,NNE,19,0.0,8.0,24,0.00,,,0.00,meteohub,2013-05-28 01:33:00,
2013-05-27 19:34:00,72.9,35.1,29.45,NNE,19,0.0,8.0,25,0.00,,,0.00,meteohub,2013-05-28 01:34:00,
2013-05-27 19:35:00,72.9,35.1,29.45,NNE,19,0.0,8.0,25,0.00,,,0.00,meteohub,2013-05-28 01:35:00,
2013-05-27 19:37:00,72.7,34.9,29.45,NNE,19,3.0,5.0,25,0.00,,,0.00,meteohub,2013-05-28 01:37:00,
2013-05-27 19:39:00,72.5,33.6,29.45,NNE,19,3.0,5.0,24,0.00,,,0.00,meteohub,2013-05-28 01:39:00,
2013-05-27 19:40:00,72.3,33.4,29.45,NNE,19,0.0,5.0,24,0.00,,,0.00,meteohub,2013-05-28 01:40:00,
2013-05-27 19:43:00,72.1,34.3,29.45,NNE,19,2.0,6.0,25,0.00,,,0.00,meteohub,2013-05-28 01:43:00,
2013-05-27 19:44:00,72.1,34.3,29.45,NNE,19,2.0,6.0,25,0.00,,,0.00,meteohub,2013-05-28 01:44:00,
2013-05-27 19:45:00,72.1,34.3,29.45,NNE,19,2.0,6.0,25,0.00,,,0.00,meteohub,2013-05-28 01:45:00,
2013-05-27 19:46:00,72.1,35.4,29.46,NNE,19,1.0,6.0,26,0.00,,,0.00,meteohub,2013-05-28 01:46:00,
2013-05-27 19:49:00,72.0,35.2,29.45,NNE,19,4.0,6.0,26,0.00,,,0.00,meteohub,2013-05-28 01:49:00,
2013-05-27 19:50:00,71.8,34.0,29.45,NNE,19,2.0,6.0,25,0.00,,,0.00,meteohub,2013-05-28 01:50:00,
2013-05-27 19:51:00,71.8,34.0,29.45,NNE,19,2.0,6.0,25,0.00,,,0.00,meteohub,2013-05-28 01:51:00,
2013-05-27 19:52:00,71.6,34.0,29.45,NNE,19,3.0,6.0,25,0.00,,,0.00,meteohub,2013-05-28 01:52:00,
2013-05-27 19:56:00,71.4,33.8,29.45,NNE,19,2.0,6.0,25,0.00,,,0.00,meteohub,2013-05-28 01:56:00,
2013-05-27 19:57:00,71.2,33.6,29.46,NNE,19,1.0,5.0,25,0.00,,,0.00,meteohub,2013-05-28 01:57:00,
2013-05-27 19:58:00,71.2,32.5,29.45,NNE,19,2.0,5.0,24,0.00,,,0.00,meteohub,2013-05-28 01:58:00,
2013-05-27 19:59:00,71.2,32.5,29.45,NNE,19,0.0,5.0,24,0.00,,,0.00,meteohub,2013-05-28 01:59:00,
2013-05-27 20:02:00,71.1,32.4,29.46,NNE,19,0.0,5.0,24,0.00,,,0.00,meteohub,2013-05-28 02:02:00,
2013-05-27 20:04:00,70.9,32.4,29.46,NNE,19,0.0,5.0,24,0.00,,,0.00,meteohub,2013-05-28 02:04:00,
2013-05-27 20:06:00,70.7,31.1,29.46,NNE,19,1.0,5.0,23,0.00,,,0.00,meteohub,2013-05-28 02:06:00,
2013-05-27 20:07:00,70.5,30.9,29.46,NNE,19,1.0,5.0,23,0.00,,,0.00,meteohub,2013-05-28 02:07:00,
2013-05-27 20:09:00,70.3,31.8,29.46,NNE,19,3.0,5.0,24,0.00,,,0.00,meteohub,2013-05-28 02:09:00,
2013-05-27 20:10:00,70.3,31.8,29.46,NNE,19,3.0,5.0,24,0.00,,,0.00,meteohub,2013-05-28 02:10:00,
2013-05-27 20:12:00,70.2,32.7,29.46,NNE,18,2.0,4.0,25,0.00,,,0.00,meteohub,2013-05-28 02:12:00,
2013-05-27 20:14:00,69.8,33.4,29.46,SW,225,2.0,4.0,26,0.00,,,0.00,meteohub,2013-05-28 02:14:00,
2013-05-27 20:15:00,69.6,33.3,29.46,SW,220,1.0,4.0,26,0.00,,,0.00,meteohub,2013-05-28 02:15:00,
2013-05-27 20:16:00,69.6,33.3,29.46,SW,220,0.0,4.0,26,0.00,,,0.00,meteohub,2013-05-28 02:16:00,
2013-05-27 20:19:00,69.4,33.1,29.46,SW,220,0.0,5.0,26,0.00,,,0.00,meteohub,2013-05-28 02:19:00,
2013-05-27 20:20:00,69.4,32.0,29.46,SW,220,0.0,5.0,25,0.00,,,0.00,meteohub,2013-05-28 02:20:00,
2013-05-27 20:21:00,69.3,32.0,29.46,SW,220,4.0,5.0,25,0.00,,,0.00,meteohub,2013-05-28 02:21:00,
2013-05-27 20:23:00,69.3,32.9,29.46,SW,219,0.0,5.0,26,0.00,,,0.00,meteohub,2013-05-28 02:23:00,
2013-05-27 20:24:00,69.3,32.9,29.46,SW,219,1.0,5.0,26,0.00,,,0.00,meteohub,2013-05-28 02:24:00,
2013-05-27 20:26:00,69.1,32.7,29.46,SW,219,0.0,5.0,26,0.00,,,0.00,meteohub,2013-05-28 02:26:00,
2013-05-27 20:27:00,69.1,32.7,29.46,SW,219,0.0,4.0,26,0.00,,,0.00,meteohub,2013-05-28 02:27:00,
2013-05-27 20:31:00,68.7,31.5,29.46,SW,219,0.0,4.0,25,0.00,,,0.00,meteohub,2013-05-28 02:31:00,
2013-05-27 20:32:00,68.7,31.5,29.45,SW,219,3.0,4.0,25,0.00,,,0.00,meteohub,2013-05-28 02:32:00,
2013-05-27 20:33:00,68.7,32.4,29.46,SW,219,0.0,4.0,26,0.00,,,0.00,meteohub,2013-05-28 02:33:00,
2013-05-27 20:34:00,68.7,32.4,29.46,SW,219,0.0,4.0,26,0.00,,,0.00,meteohub,2013-05-28 02:34:00,
2013-05-27 20:37:00,68.5,31.3,29.46,SW,219,0.0,4.0,25,0.00,,,0.00,meteohub,2013-05-28 02:37:00,
2013-05-27 20:38:00,68.5,31.3,29.46,SW,219,0.0,4.0,25,0.00,,,0.00,meteohub,2013-05-28 02:38:00,
2013-05-27 20:39:00,68.4,32.2,29.46,SW,219,0.0,4.0,26,0.00,,,0.00,meteohub,2013-05-28 02:39:00,
2013-05-27 20:40:00,68.4,32.2,29.46,SW,219,0.0,4.0,26,0.00,,,0.00,meteohub,2013-05-28 02:40:00,
2013-05-27 20:41:00,68.4,32.2,29.46,SW,219,0.0,4.0,26,0.00,,,0.00,meteohub,2013-05-28 02:41:00,
2013-05-27 20:42:00,68.4,32.2,29.46,SW,219,0.0,4.0,26,0.00,,,0.00,meteohub,2013-05-28 02:42:00,
2013-05-27 20:44:00,68.4,32.2,29.46,SW,219,0.0,4.0,26,0.00,,,0.00,meteohub,2013-05-28 02:44:00,
2013-05-27 20:45:00,68.2,32.0,29.46,SW,219,0.0,4.0,26,0.00,,,0.00,meteohub,2013-05-28 02:45:00,
2013-05-27 20:46:00,68.2,32.0,29.46,SW,219,0.0,4.0,26,0.00,,,0.00,meteohub,2013-05-28 02:46:00,
2013-05-27 20:48:00,68.0,30.9,29.46,SW,219,0.0,4.0,25,0.00,,,0.00,meteohub,2013-05-28 02:48:00,
2013-05-27 20:51:00,67.8,31.6,29.46,SW,219,0.0,4.0,26,0.00,,,0.00,meteohub,2013-05-28 02:51:00,
2013-05-27 20:52:00,67.8,32.5,29.46,SW,219,0.0,2.0,27,0.00,,,0.00,meteohub,2013-05-28 02:52:00,
2013-05-27 20:53:00,67.6,32.5,29.46,SW,219,0.0,2.0,27,0.00,,,0.00,meteohub,2013-05-28 02:53:00,
2013-05-27 20:55:00,67.6,32.5,29.46,SW,219,0.0,2.0,27,0.00,,,0.00,meteohub,2013-05-28 02:55:00,
2013-05-27 20:57:00,67.5,32.4,29.46,SW,219,0.0,1.0,27,0.00,,,0.00,meteohub,2013-05-28 02:57:00,
2013-05-27 20:58:00,67.5,32.4,29.46,SW,219,0.0,1.0,27,0.00,,,0.00,meteohub,2013-05-28 02:58:00,
2013-05-27 20:59:00,67.3,32.2,29.46,SW,219,0.0,1.0,27,0.00,,,0.00,meteohub,2013-05-28 02:59:00,
2013-05-27 21:01:00,67.3,32.2,29.46,SW,219,0.0,1.0,27,0.00,,,0.00,meteohub,2013-05-28 03:01:00,
2013-05-27 21:02:00,67.1,32.0,29.46,SW,219,0.0,1.0,27,0.00,,,0.00,meteohub,2013-05-28 03:02:00,
2013-05-27 21:03:00,66.9,32.7,29.47,SW,219,0.0,1.0,28,0.00,,,0.00,meteohub,2013-05-28 03:03:00,
2013-05-27 21:04:00,66.9,31.8,29.46,SW,219,0.0,1.0,27,0.00,,,0.00,meteohub,2013-05-28 03:04:00,
2013-05-27 21:07:00,66.7,31.6,29.47,SW,219,0.0,2.0,27,0.00,,,0.00,meteohub,2013-05-28 03:07:00,
2013-05-27 21:08:00,66.7,31.6,29.47,SW,219,0.0,2.0,27,0.00,,,0.00,meteohub,2013-05-28 03:08:00,
2013-05-27 21:09:00,66.6,31.5,29.47,SW,219,0.0,2.0,27,0.00,,,0.00,meteohub,2013-05-28 03:09:00,
2013-05-27 21:12:00,66.4,31.5,29.47,SW,219,0.0,2.0,27,0.00,,,0.00,meteohub,2013-05-28 03:12:00,
2013-05-27 21:13:00,66.4,34.9,29.47,SW,219,0.0,2.0,31,0.00,,,0.00,meteohub,2013-05-28 03:13:00,
2013-05-27 21:15:00,66.2,33.8,29.47,SW,219,1.0,2.0,30,0.00,,,0.00,meteohub,2013-05-28 03:15:00,
2013-05-27 21:16:00,66.0,33.6,29.47,SW,221,1.0,2.0,30,0.00,,,0.00,meteohub,2013-05-28 03:16:00,
2013-05-27 21:17:00,66.0,33.6,29.48,SW,221,0.0,2.0,30,0.00,,,0.00,meteohub,2013-05-28 03:17:00,
2013-05-27 21:18:00,65.8,33.6,29.48,SW,221,1.0,2.0,30,0.00,,,0.00,meteohub,2013-05-28 03:18:00,
2013-05-27 21:19:00,65.8,33.6,29.48,SW,221,0.0,2.0,30,0.00,,,0.00,meteohub,2013-05-28 03:19:00,
2013-05-27 21:22:00,65.7,33.4,29.48,WSW,250,4.0,4.0,30,0.00,,,0.00,meteohub,2013-05-28 03:22:00,
2013-05-27 21:23:00,65.7,33.4,29.48,WSW,251,3.0,3.0,30,0.00,,,0.00,meteohub,2013-05-28 03:23:00,
2013-05-27 21:24:00,65.7,34.2,29.48,WNW,300,6.0,6.0,31,0.00,,,0.00,meteohub,2013-05-28 03:24:00,
2013-05-27 21:25:00,65.5,34.0,29.48,WNW,293,3.0,3.0,31,0.00,,,0.00,meteohub,2013-05-28 03:25:00,
2013-05-27 21:29:00,65.3,33.8,29.48,WNW,292,4.0,7.0,31,0.00,,,0.00,meteohub,2013-05-28 03:29:00,
2013-05-27 21:30:00,65.1,33.8,29.48,WNW,292,5.0,7.0,31,0.00,,,0.00,meteohub,2013-05-28 03:30:00,
2013-05-27 21:31:00,65.1,33.8,29.48,WNW,290,5.0,7.0,31,0.00,,,0.00,meteohub,2013-05-28 03:31:00,
2013-05-27 21:32:00,64.9,33.6,29.48,WNW,294,4.0,7.0,31,0.00,,,0.00,meteohub,2013-05-28 03:32:00,
2013-05-27 21:36:00,64.6,34.0,29.48,WNW,288,4.0,7.0,32,0.00,,,0.00,meteohub,2013-05-28 03:36:00,
2013-05-27 21:37:00,64.6,33.3,29.48,West,277,4.0,7.0,31,0.00,,,0.00,meteohub,2013-05-28 03:37:00,
2013-05-27 21:41:00,64.2,32.9,29.48,West,271,6.0,7.0,31,0.00,,,0.00,meteohub,2013-05-28 03:41:00,
2013-05-27 21:42:00,64.2,32.9,29.48,West,278,7.0,8.0,31,0.00,,,0.00,meteohub,2013-05-28 03:42:00,
2013-05-27 21:43:00,64.2,32.9,29.48,West,265,5.0,8.0,31,0.00,,,0.00,meteohub,2013-05-28 03:43:00,
2013-05-27 21:47:00,64.2,32.2,29.48,West,281,7.0,8.0,30,0.00,,,0.00,meteohub,2013-05-28 03:47:00,
2013-05-27 21:48:00,64.2,31.3,29.48,West,273,4.0,8.0,29,0.00,,,0.00,meteohub,2013-05-28 03:48:00,
2013-05-27 21:49:00,64.2,31.3,29.48,West,271,5.0,8.0,29,0.00,,,0.00,meteohub,2013-05-28 03:49:00,
2013-05-27 21:50:00,64.4,31.5,29.48,West,270,4.0,8.0,29,0.00,,,0.00,meteohub,2013-05-28 03:50:00,
2013-05-27 21:52:00,64.6,32.4,29.48,West,263,4.0,9.0,30,0.00,,,0.00,meteohub,2013-05-28 03:52:00,
2013-05-27 21:54:00,64.6,32.4,29.49,West,269,4.0,9.0,30,0.00,,,0.00,meteohub,2013-05-28 03:54:00,
2013-05-27 21:56:00,64.6,31.6,29.49,West,271,4.0,9.0,29,0.00,,,0.00,meteohub,2013-05-28 03:56:00,
2013-05-27 22:00:00,64.6,31.6,29.49,West,265,3.0,9.0,29,0.00,,,0.00,meteohub,2013-05-28 04:00:00,
2013-05-27 22:01:00,64.6,31.6,29.49,West,265,1.0,9.0,29,0.00,,,0.00,meteohub,2013-05-28 04:01:00,
2013-05-27 22:02:00,64.6,31.6,29.49,West,265,0.0,9.0,29,0.00,,,0.00,meteohub,2013-05-28 04:02:00,
2013-05-27 22:06:00,64.6,33.3,29.49,West,265,0.0,9.0,31,0.00,,,0.00,meteohub,2013-05-28 04:06:00,
2013-05-27 22:07:00,64.6,33.3,29.49,West,265,1.0,7.0,31,0.00,,,0.00,meteohub,2013-05-28 04:07:00,
2013-05-27 22:08:00,64.2,32.9,29.49,West,265,0.0,7.0,31,0.00,,,0.00,meteohub,2013-05-28 04:08:00,
2013-05-27 22:09:00,64.0,34.3,29.50,West,266,2.0,7.0,33,0.00,,,0.00,meteohub,2013-05-28 04:09:00,
2013-05-27 22:11:00,64.0,34.3,29.50,NE,44,4.0,7.0,33,0.00,,,0.00,meteohub,2013-05-28 04:11:00,
2013-05-27 22:12:00,63.9,34.9,29.50,NE,53,5.0,6.0,34,0.00,,,0.00,meteohub,2013-05-28 04:12:00,
2013-05-27 22:13:00,63.9,34.9,29.50,NE,49,4.0,6.0,34,0.00,,,0.00,meteohub,2013-05-28 04:13:00,
2013-05-27 22:17:00,63.3,34.5,29.50,NE,35,0.0,7.0,34,0.00,,,0.00,meteohub,2013-05-28 04:17:00,
2013-05-27 22:18:00,63.1,34.3,29.50,NE,35,0.0,7.0,34,0.00,,,0.00,meteohub,2013-05-28 04:18:00,
2013-05-27 22:22:00,63.0,34.2,29.50,NE,35,3.0,7.0,34,0.00,,,0.00,meteohub,2013-05-28 04:22:00,
2013-05-27 22:23:00,62.8,33.3,29.50,NE,35,3.0,7.0,33,0.00,,,0.00,meteohub,2013-05-28 04:23:00,
2013-05-27 22:25:00,62.4,32.9,29.51,NE,35,0.0,7.0,33,0.00,,,0.00,meteohub,2013-05-28 04:25:00,
2013-05-27 22:27:00,62.4,32.9,29.50,NE,35,0.0,7.0,33,0.00,,,0.00,meteohub,2013-05-28 04:27:00,
2013-05-27 22:29:00,62.2,33.4,29.50,NNE,13,3.0,7.0,34,0.00,,,0.00,meteohub,2013-05-28 04:29:00,
2013-05-27 22:30:00,62.1,33.4,29.50,NW,323,5.0,7.0,34,0.00,,,0.00,meteohub,2013-05-28 04:30:00,
2013-05-27 22:31:00,62.1,33.4,29.50,NW,304,4.0,7.0,34,0.00,,,0.00,meteohub,2013-05-28 04:31:00,
2013-05-27 22:34:00,61.9,33.3,29.50,WNW,290,5.0,6.0,34,0.00,,,0.00,meteohub,2013-05-28 04:34:00,
2013-05-27 22:35:00,61.7,33.8,29.50,WNW,295,5.0,6.0,35,0.00,,,0.00,meteohub,2013-05-28 04:35:00,
2013-05-27 22:36:00,61.5,33.6,29.51,WNW,297,3.0,6.0,35,0.00,,,0.00,meteohub,2013-05-28 04:36:00,
2013-05-27 22:37:00,61.5,33.6,29.50,WNW,293,3.0,6.0,35,0.00,,,0.00,meteohub,2013-05-28 04:37:00,
2013-05-27 22:40:00,61.3,34.2,29.50,WNW,294,5.0,6.0,36,0.00,,,0.00,meteohub,2013-05-28 04:40:00,
2013-05-27 22:41:00,61.3,34.2,29.51,WNW,300,3.0,6.0,36,0.00,,,0.00,meteohub,2013-05-28 04:41:00,
2013-05-27 22:42:00,61.3,34.9,29.51,WNW,300,3.0,6.0,37,0.00,,,0.00,meteohub,2013-05-28 04:42:00,
2013-05-27 22:43:00,61.3,34.9,29.51,WNW,289,3.0,6.0,37,0.00,,,0.00,meteohub,2013-05-28 04:43:00,
2013-05-27 22:45:00,61.2,34.7,29.51,WNW,299,5.0,6.0,37,0.00,,,0.00,meteohub,2013-05-28 04:45:00,
2013-05-27 22:47:00,61.0,35.2,29.51,WNW,284,6.0,6.0,38,0.00,,,0.00,meteohub,2013-05-28 04:47:00,
2013-05-27 22:48:00,61.0,35.2,29.51,WNW,290,5.0,6.0,38,0.00,,,0.00,meteohub,2013-05-28 04:48:00,
2013-05-27 22:50:00,61.0,35.8,29.51,WNW,292,8.0,8.0,39,0.00,,,0.00,meteohub,2013-05-28 04:50:00,
2013-05-27 22:51:00,60.8,35.6,29.50,WNW,290,7.0,7.0,39,0.00,,,0.00,meteohub,2013-05-28 04:51:00,
2013-05-27 22:53:00,60.6,35.6,29.50,WNW,282,5.0,9.0,39,0.00,,,0.00,meteohub,2013-05-28 04:53:00,
2013-05-27 22:56:00,60.6,36.1,29.50,WNW,290,5.0,9.0,40,0.00,,,0.00,meteohub,2013-05-28 04:56:00,
2013-05-27 22:57:00,60.4,36.7,29.50,NW,320,4.0,9.0,41,0.00,,,0.00,meteohub,2013-05-28 04:57:00,
2013-05-27 22:59:00,60.4,36.7,29.50,WNW,292,2.0,9.0,41,0.00,,,0.00,meteohub,2013-05-28 04:59:00,
2013-05-27 23:01:00,60.4,36.7,29.51,WNW,292,0.0,9.0,41,0.00,,,0.00,meteohub,2013-05-28 05:01:00,
2013-05-27 23:02:00,60.3,36.5,29.51,NW,322,4.0,10.0,41,0.00,,,0.00,meteohub,2013-05-28 05:02:00,
2013-05-27 23:03:00,60.3,36.5,29.51,NNW,341,3.0,10.0,41,0.00,,,0.00,meteohub,2013-05-28 05:03:00,
2013-05-27 23:05:00,60.3,36.5,29.51,NNE,17,4.0,10.0,41,0.00,,,0.00,meteohub,2013-05-28 05:05:00,
2013-05-27 23:06:00,60.3,36.5,29.51,NNE,18,3.0,10.0,41,0.00,,,0.00,meteohub,2013-05-28 05:06:00,
2013-05-27 23:08:00,60.1,36.3,29.51,NNE,17,2.0,10.0,41,0.00,,,0.00,meteohub,2013-05-28 05:08:00,
2013-05-27 23:09:00,59.9,36.1,29.51,NNE,17,0.0,10.0,41,0.00,,,0.00,meteohub,2013-05-28 05:09:00,
2013-05-27 23:11:00,59.7,36.0,29.51,NNE,17,0.0,10.0,41,0.00,,,0.00,meteohub,2013-05-28 05:11:00,
2013-05-27 23:13:00,59.7,36.0,29.51,NNE,17,2.0,9.0,41,0.00,,,0.00,meteohub,2013-05-28 05:13:00,
2013-05-27 23:15:00,59.5,35.8,29.51,NNE,17,0.0,9.0,41,0.00,,,0.00,meteohub,2013-05-28 05:15:00,
2013-05-27 23:16:00,59.5,35.2,29.51,NNE,17,0.0,9.0,40,0.00,,,0.00,meteohub,2013-05-28 05:16:00,
2013-05-27 23:17:00,59.5,35.2,29.51,NNE,17,0.0,5.0,40,0.00,,,0.00,meteohub,2013-05-28 05:17:00,
2013-05-27 23:18:00,59.4,34.3,29.50,NNE,17,0.0,5.0,39,0.00,,,0.00,meteohub,2013-05-28 05:18:00,
2013-05-27 23:19:00,59.4,35.1,29.50,NNE,17,0.0,5.0,40,0.00,,,0.00,meteohub,2013-05-28 05:19:00,
2013-05-27 23:22:00,59.4,35.1,29.50,NNE,17,0.0,3.0,40,0.00,,,0.00,meteohub,2013-05-28 05:22:00,
2013-05-27 23:24:00,59.2,34.9,29.51,NNE,17,0.0,3.0,40,0.00,,,0.00,meteohub,2013-05-28 05:24:00,
2013-05-27 23:25:00,59.2,34.9,29.51,NNE,17,0.0,3.0,40,0.00,,,0.00,meteohub,2013-05-28 05:25:00,
2013-05-27 23:29:00,59.2,34.9,29.51,NNE,17,1.0,3.0,40,0.00,,,0.00,meteohub,2013-05-28 05:29:00,
2013-05-27 23:30:00,59.0,34.7,29.51,NNE,17,2.0,3.0,40,0.00,,,0.00,meteohub,2013-05-28 05:30:00,
2013-05-27 23:31:00,59.0,34.7,29.51,NNE,17,1.0,3.0,40,0.00,,,0.00,meteohub,2013-05-28 05:31:00,
2013-05-27 23:34:00,58.8,34.5,29.51,NNE,17,0.0,3.0,40,0.00,,,0.00,meteohub,2013-05-28 05:34:00,
2013-05-27 23:36:00,58.8,34.5,29.51,NNE,17,0.0,3.0,40,0.00,,,0.00,meteohub,2013-05-28 05:36:00,
2013-05-27 23:37:00,58.6,34.3,29.51,NNE,17,0.0,3.0,40,0.00,,,0.00,meteohub,2013-05-28 05:37:00,
2013-05-27 23:40:00,58.6,34.3,29.51,NNE,17,0.0,3.0,40,0.00,,,0.00,meteohub,2013-05-28 05:40:00,
2013-05-27 23:41:00,58.6,35.1,29.51,NNE,17,0.0,3.0,41,0.00,,,0.00,meteohub,2013-05-28 05:41:00,
2013-05-27 23:42:00,58.6,35.1,29.50,NNE,17,1.0,3.0,41,0.00,,,0.00,meteohub,2013-05-28 05:42:00,
2013-05-27 23:43:00,58.6,35.1,29.50,NNE,17,2.0,3.0,41,0.00,,,0.00,meteohub,2013-05-28 05:43:00,
2013-05-27 23:45:00,58.6,35.1,29.50,North,355,2.0,3.0,41,0.00,,,0.00,meteohub,2013-05-28 05:45:00,
2013-05-27 23:47:00,58.6,35.1,29.50,NW,324,2.0,5.0,41,0.00,,,0.00,meteohub,2013-05-28 05:47:00,
2013-05-27 23:48:00,58.5,35.4,29.50,NW,319,0.0,5.0,42,0.00,,,0.00,meteohub,2013-05-28 05:48:00,
2013-05-27 23:50:00,58.5,35.4,29.50,NW,319,0.0,5.0,42,0.00,,,0.00,meteohub,2013-05-28 05:50:00,
2013-05-27 23:51:00,58.5,35.4,29.50,NW,319,0.0,5.0,42,0.00,,,0.00,meteohub,2013-05-28 05:51:00,
2013-05-27 23:54:00,58.5,36.0,29.50,NW,319,2.0,5.0,43,0.00,,,0.00,meteohub,2013-05-28 05:54:00,
2013-05-27 23:55:00,58.5,36.0,29.50,NW,319,3.0,5.0,43,0.00,,,0.00,meteohub,2013-05-28 05:55:00,
2013-05-27 23:57:00,58.5,35.4,29.50,NW,319,0.0,5.0,42,0.00,,,0.00,meteohub,2013-05-28 05:57:00,
2013-05-27 23:58:00,58.3,35.2,29.50,NW,319,1.0,5.0,42,0.00,,,0.00,meteohub,2013-05-28 05:58:00,
2013-05-27 23:59:00,58.3,35.2,29.50,NW,319,1.0,5.0,42,0.00,,,0.00,meteohub,2013-05-28 05:59:00,